Time,TemperatureF,DewpointF,PressureIn,WindDirection,WindDirectionDegrees,WindSpeedMPH,WindSpeedGustMPH,Humidity,HourlyPrecipIn,Conditions,Clouds,dailyrainin,SoftwareType,DateUTC
2013-03-19 00:00:00,31.6,25.5,30.10,South,173,8.1,12.0,78,0.00,CLR,OVC,0.00,WeatherDisplay:10.37,2013-03-19 04:00:00,
2013-03-19 00:01:00,31.5,25.4,30.10,South,190,12.0,13.8,78,0.00,CLR,OVC,0.00,WeatherDisplay:10.37,2013-03-19 04:01:00,
2013-03-19 00:02:00,31.5,25.4,30.10,South,183,10.8,15.0,78,0.00,CLR,OVC,0.00,WeatherDisplay:10.37,2013-03-19 04:02:00,
2013-03-19 00:05:00,31.4,25.6,30.09,South,191,6.8,9.2,79,0.00,CLR,OVC,0.00,WeatherDisplay:10.37,2013-03-19 04:05:00,
2013-03-19 00:06:00,31.4,25.6,30.09,South,182,7.2,11.5,79,0.00,CLR,OVC,0.00,WeatherDisplay:10.37,2013-03-19 04:06:00,
2013-03-19 00:08:00,31.4,25.6,30.10,SSE,165,5.3,10.4,79,0.00,CLR,OVC,0.00,WeatherDisplay:10.37,2013-03-19 04:08:00,
2013-03-19 00:10:00,31.3,25.8,30.09,SSW,193,8.3,11.5,80,0.00,CLR,OVC,0.00,WeatherDisplay:10.37,2013-03-19 04:10:00,
2013-03-19 00:13:00,31.2,25.7,30.09,South,189,7.0,9.2,80,0.00,CLR,OVC,0.00,WeatherDisplay:10.37,2013-03-19 04:13:00,
2013-03-19 00:15:00,31.1,25.7,30.09,South,184,7.4,11.5,80,0.00,CLR,OVC,0.00,WeatherDisplay:10.37,2013-03-19 04:15:00,
2013-03-19 00:18:00,31.1,26.0,30.08,SSW,192,7.8,10.4,81,0.00,CLR,OVC,0.00,WeatherDisplay:10.37,2013-03-19 04:18:00,
2013-03-19 00:20:00,31.0,26.1,30.09,South,183,6.3,9.2,82,0.00,CLR,OVC,0.00,WeatherDisplay:10.37,2013-03-19 04:20:00,
2013-03-19 00:23:00,30.9,26.3,30.08,SSW,203,6.8,8.1,83,0.00,CLR,OVC,0.00,WeatherDisplay:10.37,2013-03-19 04:23:00,
2013-03-19 00:25:00,30.7,26.1,30.08,SSW,199,5.7,9.2,83,0.00,CLR,OVC,0.00,WeatherDisplay:10.37,2013-03-19 04:25:00,
2013-03-19 00:28:00,30.6,26.3,30.08,SSW,210,7.3,10.4,84,0.00,CLR,OVC,0.00,WeatherDisplay:10.37,2013-03-19 04:28:00,
2013-03-19 00:30:00,30.6,26.6,30.08,SSW,210,7.0,10.4,85,0.00,CLR,OVC,0.00,WeatherDisplay:10.37,2013-03-19 04:30:00,
2013-03-19 00:33:00,30.5,26.5,30.08,SSW,198,5.5,6.0,85,0.00,CLR,OVC,0.00,WeatherDisplay:10.37,2013-03-19 04:33:00,
2013-03-19 00:34:00,30.5,26.5,30.08,SSW,198,6.6,8.1,85,0.00,CLR,OVC,0.00,WeatherDisplay:10.37,2013-03-19 04:34:00,
2013-03-19 00:36:00,30.5,26.8,30.08,SSW,198,4.9,6.9,86,0.00,CLR,OVC,0.00,WeatherDisplay:10.37,2013-03-19 04:36:00,
2013-03-19 00:37:00,30.5,26.8,30.08,SSW,205,6.0,8.1,86,0.00,CLR,OVC,0.00,WeatherDisplay:10.37,2013-03-19 04:37:00,
2013-03-19 00:38:00,30.5,26.8,30.08,SSW,198,5.9,9.2,86,0.00,CLR,OVC,0.00,WeatherDisplay:10.37,2013-03-19 04:38:00,
2013-03-19 00:39:00,30.5,27.1,30.07,SSW,198,5.1,9.2,87,0.00,CLR,OVC,0.00,WeatherDisplay:10.37,2013-03-19 04:39:00,
2013-03-19 00:42:00,30.4,27.0,30.07,SSW,199,5.2,8.1,87,0.00,CLR,OVC,0.00,WeatherDisplay:10.37,2013-03-19 04:42:00,
2013-03-19 00:43:00,30.4,27.0,30.07,SSW,197,5.4,7.0,87,0.00,CLR,OVC,0.00,WeatherDisplay:10.37,2013-03-19 04:43:00,
2013-03-19 00:44:00,30.4,27.0,30.07,SSW,197,5.2,6.9,87,0.00,CLR,OVC,0.00,WeatherDisplay:10.37,2013-03-19 04:44:00,
2013-03-19 00:47:00,30.3,26.9,30.06,SSW,203,5.1,7.0,87,0.00,CLR,OVC,0.00,WeatherDisplay:10.37,2013-03-19 04:47:00,
2013-03-19 00:48:00,30.3,26.9,30.06,SSW,204,5.9,8.1,87,0.00,CLR,OVC,0.00,WeatherDisplay:10.37,2013-03-19 04:48:00,
2013-03-19 00:49:00,30.3,26.9,30.06,SSW,204,4.8,8.1,87,0.00,CLR,OVC,0.00,WeatherDisplay:10.37,2013-03-19 04:49:00,
2013-03-19 00:52:00,30.3,27.2,30.06,SSW,204,4.9,6.0,88,0.00,CLR,OVC,0.00,WeatherDisplay:10.37,2013-03-19 04:52:00,
2013-03-19 00:53:00,30.3,27.2,30.06,SSW,204,5.1,5.8,88,0.00,CLR,OVC,0.00,WeatherDisplay:10.37,2013-03-19 04:53:00,
2013-03-19 00:54:00,30.3,27.2,30.06,SSW,205,5.4,7.0,88,0.00,CLR,OVC,0.00,WeatherDisplay:10.37,2013-03-19 04:54:00,
2013-03-19 00:57:00,30.3,27.2,30.06,SSW,209,5.6,6.9,88,0.00,CLR,OVC,0.00,WeatherDisplay:10.37,2013-03-19 04:57:00,
2013-03-19 00:58:00,30.3,27.2,30.06,SSW,212,6.7,8.1,88,0.00,CLR,OVC,0.00,WeatherDisplay:10.37,2013-03-19 04:58:00,
2013-03-19 00:59:00,30.3,27.2,30.06,SSW,204,6.4,8.1,88,0.00,CLR,OVC,0.00,WeatherDisplay:10.37,2013-03-19 04:59:00,
2013-03-19 01:02:00,30.3,27.4,30.05,SSW,204,5.5,6.9,89,0.00,CLR,OVC,0.00,WeatherDisplay:10.37,2013-03-19 05:02:00,
2013-03-19 01:03:00,30.3,27.4,30.05,SSW,205,5.4,6.0,89,0.00,CLR,OVC,0.00,WeatherDisplay:10.37,2013-03-19 05:03:00,
2013-03-19 01:04:00,30.3,27.4,30.05,SSW,206,6.1,8.1,89,0.00,CLR,OVC,0.00,WeatherDisplay:10.37,2013-03-19 05:04:00,
2013-03-19 01:07:00,30.3,27.4,30.05,SSW,207,4.9,6.0,89,0.00,CLR,OVC,0.00,WeatherDisplay:10.37,2013-03-19 05:07:00,
2013-03-19 01:08:00,30.3,27.4,30.05,SSW,207,5.0,5.8,89,0.00,CLR,OVC,0.00,WeatherDisplay:10.37,2013-03-19 05:08:00,
2013-03-19 01:09:00,30.3,27.4,30.04,SSW,207,4.8,6.0,89,0.00,CLR,OVC,0.00,WeatherDisplay:10.37,2013-03-19 05:09:00,
2013-03-19 01:12:00,30.3,27.4,30.04,SSW,207,4.5,8.1,89,0.00,CLR,OVC,0.00,WeatherDisplay:10.37,2013-03-19 05:12:00,
2013-03-19 01:13:00,30.3,27.4,30.04,SSW,207,4.8,6.0,89,0.00,CLR,OVC,0.00,WeatherDisplay:10.37,2013-03-19 05:13:00,
2013-03-19 01:14:00,30.3,27.4,30.04,SSW,207,5.0,5.8,89,0.00,CLR,OVC,0.00,WeatherDisplay:10.37,2013-03-19 05:14:00,
2013-03-19 01:17:00,30.3,27.7,30.04,SSW,207,5.4,5.8,90,0.00,CLR,OVC,0.00,WeatherDisplay:10.37,2013-03-19 05:17:00,
2013-03-19 01:18:00,30.3,27.7,30.04,SSW,207,5.4,6.0,90,0.00,CLR,OVC,0.00,WeatherDisplay:10.37,2013-03-19 05:18:00,
2013-03-19 01:19:00,30.2,27.6,30.04,SSW,207,5.7,6.9,90,0.00,CLR,OVC,0.00,WeatherDisplay:10.37,2013-03-19 05:19:00,
2013-03-19 01:23:00,30.3,27.7,30.04,SSW,211,6.8,8.1,90,0.00,CLR,OVC,0.00,WeatherDisplay:10.37,2013-03-19 05:23:00,
2013-03-19 01:24:00,30.3,27.7,30.04,SSW,211,6.4,8.1,90,0.00,CLR,OVC,0.00,WeatherDisplay:10.37,2013-03-19 05:24:00,
2013-03-19 01:28:00,30.3,27.7,30.04,SSW,211,5.2,5.8,90,0.00,CLR,OVC,0.00,WeatherDisplay:10.37,2013-03-19 05:28:00,
2013-03-19 01:29:00,30.3,27.7,30.04,SSW,211,5.1,6.0,90,0.00,CLR,OVC,0.00,WeatherDisplay:10.37,2013-03-19 05:29:00,
2013-03-19 01:33:00,30.3,27.7,30.04,SSW,211,5.3,6.0,90,0.00,CLR,OVC,0.00,WeatherDisplay:10.37,2013-03-19 05:33:00,
2013-03-19 01:34:00,30.3,27.7,30.04,SSW,211,5.4,7.0,90,0.00,CLR,OVC,0.00,WeatherDisplay:10.37,2013-03-19 05:34:00,
2013-03-19 01:35:00,30.3,27.7,30.04,SSW,211,5.7,7.0,90,0.00,CLR,OVC,0.00,WeatherDisplay:10.37,2013-03-19 05:35:00,
2013-03-19 01:38:00,30.3,27.7,30.03,SW,214,5.8,6.9,90,0.00,CLR,OVC,0.00,WeatherDisplay:10.37,2013-03-19 05:38:00,
2013-03-19 01:39:00,30.3,27.7,30.03,SW,214,5.9,6.9,90,0.00,CLR,OVC,0.00,WeatherDisplay:10.37,2013-03-19 05:39:00,
2013-03-19 01:40:00,30.3,27.7,30.03,SW,214,5.7,6.9,90,0.00,CLR,OVC,0.00,WeatherDisplay:10.37,2013-03-19 05:40:00,
2013-03-19 01:43:00,30.2,27.6,30.03,SSW,198,6.6,9.2,90,0.00,CLR,OVC,0.00,WeatherDisplay:10.37,2013-03-19 05:43:00,
2013-03-19 01:44:00,30.2,27.6,30.03,SSW,198,6.2,8.1,90,0.00,CLR,OVC,0.00,WeatherDisplay:10.37,2013-03-19 05:44:00,
2013-03-19 01:45:00,30.2,27.9,30.03,SSW,193,6.3,8.1,91,0.00,CLR,OVC,0.00,WeatherDisplay:10.37,2013-03-19 05:45:00,
2013-03-19 01:48:00,30.2,27.6,30.02,South,191,5.0,8.1,90,0.00,CLR,OVC,0.00,WeatherDisplay:10.37,2013-03-19 05:48:00,
2013-03-19 01:49:00,30.2,27.6,30.02,South,191,4.8,6.9,90,0.00,CLR,OVC,0.00,WeatherDisplay:10.37,2013-03-19 05:49:00,
2013-03-19 01:50:00,30.2,27.6,30.02,South,191,4.1,5.8,90,0.00,CLR,OVC,0.00,WeatherDisplay:10.37,2013-03-19 05:50:00,
2013-03-19 01:53:00,30.2,27.9,30.02,SSW,195,4.6,6.9,91,0.00,CLR,OVC,0.00,WeatherDisplay:10.37,2013-03-19 05:53:00,
2013-03-19 01:54:00,30.2,27.9,30.02,SSW,195,4.4,5.0,91,0.00,CLR,OVC,0.00,WeatherDisplay:10.37,2013-03-19 05:54:00,
2013-03-19 01:55:00,30.2,27.9,30.02,SSW,195,4.9,7.0,91,0.00,CLR,OVC,0.00,WeatherDisplay:10.37,2013-03-19 05:55:00,
2013-03-19 01:59:00,30.1,27.5,30.02,SSW,199,5.3,6.9,90,0.00,CLR,OVC,0.00,WeatherDisplay:10.37,2013-03-19 05:59:00,
2013-03-19 02:00:00,30.1,27.8,30.02,SSW,199,5.1,6.0,91,0.00,CLR,OVC,0.00,WeatherDisplay:10.37,2013-03-19 06:00:00,
2013-03-19 02:04:00,30.1,27.8,30.02,SSW,202,5.1,7.0,91,0.00,CLR,OVC,0.00,WeatherDisplay:10.37,2013-03-19 06:04:00,
2013-03-19 02:05:00,30.0,27.7,30.02,SSW,202,5.2,6.9,91,0.00,CLR,OVC,0.00,WeatherDisplay:10.37,2013-03-19 06:05:00,
2013-03-19 02:09:00,30.0,27.7,30.02,SSW,199,4.4,5.8,91,0.00,CLR,OVC,0.00,WeatherDisplay:10.37,2013-03-19 06:09:00,
2013-03-19 02:10:00,30.0,27.7,30.02,SSW,199,4.3,6.0,91,0.00,CLR,OVC,0.00,WeatherDisplay:10.37,2013-03-19 06:10:00,
2013-03-19 02:14:00,29.9,27.9,30.02,SSW,199,3.7,5.0,92,0.00,CLR,OVC,0.00,WeatherDisplay:10.37,2013-03-19 06:14:00,
2013-03-19 02:15:00,29.9,27.9,30.02,SSW,199,3.6,4.6,92,0.00,CLR,OVC,0.00,WeatherDisplay:10.37,2013-03-19 06:15:00,
2013-03-19 02:16:00,29.9,27.9,30.01,SSW,199,3.3,4.6,92,0.00,CLR,OVC,0.00,WeatherDisplay:10.37,2013-03-19 06:16:00,
2013-03-19 02:19:00,29.9,27.9,30.02,SSW,199,4.0,5.8,92,0.00,CLR,OVC,0.00,WeatherDisplay:10.37,2013-03-19 06:19:00,
2013-03-19 02:20:00,29.9,27.9,30.02,SSW,199,3.9,6.0,92,0.00,CLR,OVC,0.00,WeatherDisplay:10.37,2013-03-19 06:20:00,
2013-03-19 02:21:00,29.8,27.8,30.01,SSW,199,3.8,5.8,92,0.00,CLR,OVC,0.00,WeatherDisplay:10.37,2013-03-19 06:21:00,
2013-03-19 02:25:00,29.8,27.8,30.01,SSW,199,3.6,4.6,92,0.00,CLR,OVC,0.00,WeatherDisplay:10.37,2013-03-19 06:25:00,
2013-03-19 02:26:00,29.8,27.8,30.01,SSW,199,2.9,3.5,92,0.00,CLR,OVC,0.00,WeatherDisplay:10.37,2013-03-19 06:26:00,
2013-03-19 02:27:00,29.8,27.8,30.01,SSW,199,2.5,3.5,92,0.00,CLR,OVC,0.00,WeatherDisplay:10.37,2013-03-19 06:27:00,
2013-03-19 02:30:00,29.7,27.7,30.01,SSW,199,3.0,3.5,92,0.00,CLR,OVC,0.00,WeatherDisplay:10.37,2013-03-19 06:30:00,
2013-03-19 02:32:00,29.7,27.7,30.01,SSW,199,3.4,4.0,92,0.00,CLR,OVC,0.00,WeatherDisplay:10.37,2013-03-19 06:32:00,
2013-03-19 02:35:00,29.7,27.7,30.01,SSW,199,2.1,3.5,92,0.00,CLR,OVC,0.00,WeatherDisplay:10.37,2013-03-19 06:35:00,
2013-03-19 02:36:00,29.6,27.8,30.00,SSW,199,1.6,3.5,93,0.00,CLR,OVC,0.00,WeatherDisplay:10.37,2013-03-19 06:36:00,
2013-03-19 02:37:00,29.7,27.9,30.00,SSW,199,2.4,3.5,93,0.00,CLR,OVC,0.00,WeatherDisplay:10.37,2013-03-19 06:37:00,
2013-03-19 02:40:00,29.6,27.8,30.00,SSW,199,2.3,3.5,93,0.00,CLR,OVC,0.00,WeatherDisplay:10.37,2013-03-19 06:40:00,
2013-03-19 02:42:00,29.6,27.8,30.00,SSW,199,3.2,4.6,93,0.00,CLR,OVC,0.00,WeatherDisplay:10.37,2013-03-19 06:42:00,
2013-03-19 02:43:00,29.7,27.9,30.00,SSW,199,3.4,4.6,93,0.00,CLR,OVC,0.00,WeatherDisplay:10.37,2013-03-19 06:43:00,
2013-03-19 02:46:00,29.6,27.8,30.00,SSW,199,4.1,5.0,93,0.00,CLR,OVC,0.00,WeatherDisplay:10.37,2013-03-19 06:46:00,
2013-03-19 02:47:00,29.7,27.9,30.00,SSW,199,4.0,4.6,93,0.00,CLR,OVC,0.00,WeatherDisplay:10.37,2013-03-19 06:47:00,
2013-03-19 02:48:00,29.6,27.8,30.00,SSW,199,4.0,4.6,93,0.00,CLR,OVC,0.00,WeatherDisplay:10.37,2013-03-19 06:48:00,
2013-03-19 02:52:00,29.6,27.8,30.00,SSW,199,3.5,4.6,93,0.00,CLR,OVC,0.00,WeatherDisplay:10.37,2013-03-19 06:52:00,
2013-03-19 02:53:00,29.6,27.8,30.00,SSW,199,3.3,5.0,93,0.00,CLR,OVC,0.00,WeatherDisplay:10.37,2013-03-19 06:53:00,
2013-03-19 02:57:00,29.6,27.8,30.00,SSW,199,4.4,5.0,93,0.00,CLR,OVC,0.00,WeatherDisplay:10.37,2013-03-19 06:57:00,
2013-03-19 02:58:00,29.6,27.8,30.00,SSW,199,5.3,6.9,93,0.00,CLR,OVC,0.00,WeatherDisplay:10.37,2013-03-19 06:58:00,
2013-03-19 03:02:00,29.6,28.1,29.99,SSW,200,2.9,5.8,94,0.00,CLR,OVC,0.00,WeatherDisplay:10.37,2013-03-19 07:02:00,
2013-03-19 03:03:00,29.6,28.1,29.99,SSW,200,3.5,5.0,94,0.00,CLR,OVC,0.00,WeatherDisplay:10.37,2013-03-19 07:03:00,
2013-03-19 03:04:00,29.7,28.2,29.99,SSW,200,3.8,4.6,94,0.00,CLR,OVC,0.00,WeatherDisplay:10.37,2013-03-19 07:04:00,
2013-03-19 03:07:00,29.7,28.2,29.99,SSW,200,3.7,4.6,94,0.00,CLR,OVC,0.00,WeatherDisplay:10.37,2013-03-19 07:07:00,
2013-03-19 03:08:00,29.7,28.2,29.99,SSW,200,3.5,4.6,94,0.00,CLR,OVC,0.00,WeatherDisplay:10.37,2013-03-19 07:08:00,
2013-03-19 03:09:00,29.7,28.2,29.99,SSW,200,3.7,4.6,94,0.00,CLR,OVC,0.00,WeatherDisplay:10.37,2013-03-19 07:09:00,
2013-03-19 03:13:00,29.7,28.2,29.99,SSW,200,4.3,5.0,94,0.00,CLR,OVC,0.00,WeatherDisplay:10.37,2013-03-19 07:13:00,
2013-03-19 03:14:00,29.7,28.2,29.99,SSW,200,3.8,5.8,94,0.00,CLR,OVC,0.00,WeatherDisplay:10.37,2013-03-19 07:14:00,
2013-03-19 03:18:00,29.7,28.2,29.98,SSW,200,3.4,4.6,94,0.00,CLR,OVC,0.00,WeatherDisplay:10.37,2013-03-19 07:18:00,
2013-03-19 03:19:00,29.7,28.2,29.98,SSW,200,3.0,4.6,94,0.00,CLR,OVC,0.00,WeatherDisplay:10.37,2013-03-19 07:19:00,
2013-03-19 03:23:00,29.7,28.2,29.98,SSW,200,4.7,5.8,94,0.00,CLR,OVC,0.00,WeatherDisplay:10.37,2013-03-19 07:23:00,
2013-03-19 03:24:00,29.7,28.2,29.98,SSW,200,4.4,7.0,94,0.00,CLR,OVC,0.00,WeatherDisplay:10.37,2013-03-19 07:24:00,
2013-03-19 03:28:00,29.8,28.3,29.98,SSW,195,4.6,6.9,94,0.00,CLR,OVC,0.00,WeatherDisplay:10.37,2013-03-19 07:28:00,
2013-03-19 03:29:00,29.8,28.3,29.98,SSW,196,4.8,6.9,94,0.00,CLR,OVC,0.00,WeatherDisplay:10.37,2013-03-19 07:29:00,
2013-03-19 03:33:00,29.8,28.3,29.98,South,188,5.5,8.1,94,0.00,CLR,OVC,0.00,WeatherDisplay:10.37,2013-03-19 07:33:00,
2013-03-19 03:34:00,29.8,28.3,29.98,South,184,5.2,6.9,94,0.00,CLR,OVC,0.00,WeatherDisplay:10.37,2013-03-19 07:34:00,
2013-03-19 03:38:00,29.9,28.4,29.97,SSW,197,5.7,8.0,94,0.00,CLR,OVC,0.00,WeatherDisplay:10.37,2013-03-19 07:38:00,
2013-03-19 03:39:00,29.9,28.4,29.98,SSW,199,5.9,8.1,94,0.00,CLR,OVC,0.00,WeatherDisplay:10.37,2013-03-19 07:39:00,
2013-03-19 03:40:00,29.9,28.4,29.98,SSW,192,6.0,8.0,94,0.00,CLR,OVC,0.00,WeatherDisplay:10.37,2013-03-19 07:40:00,
2013-03-19 03:43:00,29.9,28.4,29.97,SSW,198,4.4,7.0,94,0.00,CLR,OVC,0.00,WeatherDisplay:10.37,2013-03-19 07:43:00,
2013-03-19 03:44:00,29.9,28.6,29.97,SSW,199,4.8,6.9,95,0.00,CLR,OVC,0.00,WeatherDisplay:10.37,2013-03-19 07:44:00,
2013-03-19 03:45:00,29.9,28.4,29.97,SSW,198,4.6,6.9,94,0.00,CLR,OVC,0.00,WeatherDisplay:10.37,2013-03-19 07:45:00,
2013-03-19 03:49:00,29.9,28.4,29.97,SSW,195,3.8,4.6,94,0.00,CLR,OVC,0.00,WeatherDisplay:10.37,2013-03-19 07:49:00,
2013-03-19 03:50:00,29.9,28.4,29.97,SSW,197,3.0,7.0,94,0.00,CLR,OVC,0.00,WeatherDisplay:10.37,2013-03-19 07:50:00,
2013-03-19 03:54:00,29.9,28.6,29.96,SSW,195,3.6,4.6,95,0.00,CLR,OVC,0.00,WeatherDisplay:10.37,2013-03-19 07:54:00,
2013-03-19 03:55:00,29.9,28.6,29.97,SSW,195,3.0,6.0,95,0.00,CLR,OVC,0.00,WeatherDisplay:10.37,2013-03-19 07:55:00,
2013-03-19 03:59:00,29.9,28.4,29.96,SSW,195,1.9,3.5,94,0.00,CLR,OVC,0.00,WeatherDisplay:10.37,2013-03-19 07:59:00,
2013-03-19 04:00:00,29.9,28.6,29.96,SSW,195,2.0,4.0,95,0.00,CLR,OVC,0.00,WeatherDisplay:10.37,2013-03-19 08:00:00,
2013-03-19 04:01:00,29.9,28.6,29.96,SSW,195,3.8,3.8,95,0.00,CLR,OVC,0.00,WeatherDisplay:10.37,2013-03-19 08:01:00,
2013-03-19 04:05:00,29.9,28.4,29.96,SSW,195,2.8,4.6,94,0.00,CLR,OVC,0.00,WeatherDisplay:10.37,2013-03-19 08:05:00,
2013-03-19 04:06:00,29.9,28.6,29.96,SSW,195,2.7,4.0,95,0.00,CLR,OVC,0.00,WeatherDisplay:10.37,2013-03-19 08:06:00,
2013-03-19 04:10:00,29.9,28.6,29.96,SSW,195,3.7,5.0,95,0.00,CLR,OVC,0.00,WeatherDisplay:10.37,2013-03-19 08:10:00,
2013-03-19 04:11:00,29.9,28.6,29.96,SSW,195,3.6,4.6,95,0.00,CLR,OVC,0.00,WeatherDisplay:10.37,2013-03-19 08:11:00,
2013-03-19 04:15:00,29.9,28.6,29.96,SSW,195,3.4,4.0,95,0.00,CLR,OVC,0.00,WeatherDisplay:10.37,2013-03-19 08:15:00,
2013-03-19 04:17:00,30.0,28.7,29.95,SSW,195,3.1,4.0,95,0.00,CLR,OVC,0.00,WeatherDisplay:10.37,2013-03-19 08:17:00,
2013-03-19 04:20:00,30.0,28.7,29.95,SSW,196,4.2,6.9,95,0.00,CLR,OVC,0.00,WeatherDisplay:10.37,2013-03-19 08:20:00,
2013-03-19 04:22:00,29.9,28.6,29.95,SSW,199,5.0,5.8,95,0.00,CLR,OVC,0.00,WeatherDisplay:10.37,2013-03-19 08:22:00,
2013-03-19 04:25:00,29.9,28.6,29.95,SSW,203,3.3,5.0,95,0.00,CLR,OVC,0.00,WeatherDisplay:10.37,2013-03-19 08:25:00,
2013-03-19 04:27:00,29.9,28.6,29.95,South,190,2.6,4.6,95,0.00,CLR,OVC,0.00,WeatherDisplay:10.37,2013-03-19 08:27:00,
2013-03-19 04:30:00,29.9,28.6,29.95,South,190,2.8,4.6,95,0.00,CLR,OVC,0.00,WeatherDisplay:10.37,2013-03-19 08:30:00,
2013-03-19 04:33:00,29.9,28.6,29.94,SSW,208,4.1,8.0,95,0.00,CLR,OVC,0.00,WeatherDisplay:10.37,2013-03-19 08:33:00,
2013-03-19 04:35:00,29.9,28.6,29.94,South,174,11.3,16.0,95,0.00,CLR,OVC,0.00,WeatherDisplay:10.37,2013-03-19 08:35:00,
2013-03-19 04:38:00,29.9,28.6,29.94,South,183,12.9,19.6,95,0.00,CLR,OVC,0.00,WeatherDisplay:10.37,2013-03-19 08:38:00,
2013-03-19 04:40:00,29.9,28.9,29.94,SSW,194,10.3,16.1,96,0.00,CLR,OVC,0.00,WeatherDisplay:10.37,2013-03-19 08:40:00,
2013-03-19 04:41:00,29.9,28.6,29.94,SSW,211,10.5,16.1,95,0.00,CLR,OVC,0.00,WeatherDisplay:10.37,2013-03-19 08:41:00,
2013-03-19 04:43:00,29.9,28.6,29.94,WSW,247,12.2,15.0,95,0.00,CLR,OVC,0.00,WeatherDisplay:10.37,2013-03-19 08:43:00,
2013-03-19 04:45:00,29.9,28.9,29.94,SW,225,11.0,13.8,96,0.00,CLR,OVC,0.00,WeatherDisplay:10.37,2013-03-19 08:45:00,
2013-03-19 04:46:00,29.9,28.9,29.94,SSW,210,10.0,13.8,96,0.00,CLR,OVC,0.00,WeatherDisplay:10.37,2013-03-19 08:46:00,
2013-03-19 04:48:00,29.9,28.9,29.94,SW,217,11.9,15.0,96,0.00,CLR,OVC,0.00,WeatherDisplay:10.37,2013-03-19 08:48:00,
2013-03-19 04:50:00,29.9,28.9,29.94,SSW,198,14.4,18.4,96,0.00,CLR,OVC,0.00,WeatherDisplay:10.37,2013-03-19 08:50:00,
2013-03-19 04:51:00,29.9,28.9,29.94,SW,227,11.5,16.1,96,0.00,CLR,OVC,0.00,WeatherDisplay:10.37,2013-03-19 08:51:00,
2013-03-19 04:53:00,29.9,28.9,29.94,SW,219,9.5,11.5,96,0.00,CLR,OVC,0.00,WeatherDisplay:10.37,2013-03-19 08:53:00,
2013-03-19 04:55:00,29.9,28.9,29.94,SSW,210,10.5,13.8,96,0.00,CLR,OVC,0.00,WeatherDisplay:10.37,2013-03-19 08:55:00,
2013-03-19 04:56:00,29.9,28.9,29.94,SSW,207,8.1,10.4,96,0.00,CLR,OVC,0.00,WeatherDisplay:10.37,2013-03-19 08:56:00,
2013-03-19 04:59:00,29.9,28.9,29.94,SSW,209,8.2,11.5,96,0.00,CLR,OVC,0.00,WeatherDisplay:10.37,2013-03-19 08:59:00,
2013-03-19 05:00:00,29.9,28.9,29.94,SSW,207,7.0,9.2,96,0.00,CLR,OVC,0.00,WeatherDisplay:10.37,2013-03-19 09:00:00,
2013-03-19 05:01:00,29.9,28.9,29.94,SW,218,7.0,11.5,96,0.00,CLR,OVC,0.00,WeatherDisplay:10.37,2013-03-19 09:01:00,
2013-03-19 05:04:00,29.9,28.9,29.94,SW,214,7.0,10.4,96,0.00,CLR,OVC,0.00,WeatherDisplay:10.37,2013-03-19 09:04:00,
2013-03-19 05:05:00,29.9,28.9,29.94,South,191,6.7,9.0,96,0.00,CLR,OVC,0.00,WeatherDisplay:10.37,2013-03-19 09:05:00,
2013-03-19 05:06:00,29.9,28.9,29.94,SSW,198,6.2,11.5,96,0.00,CLR,OVC,0.00,WeatherDisplay:10.37,2013-03-19 09:06:00,
2013-03-19 05:07:00,29.9,28.9,29.94,SSW,209,7.4,9.2,96,0.00,CLR,OVC,0.00,WeatherDisplay:10.37,2013-03-19 09:07:00,
2013-03-19 05:09:00,29.9,28.9,29.93,SW,225,6.9,9.2,96,0.00,CLR,OVC,0.00,WeatherDisplay:10.37,2013-03-19 09:09:00,
2013-03-19 05:10:00,29.9,28.9,29.93,SW,218,6.2,8.1,96,0.00,CLR,OVC,0.00,WeatherDisplay:10.37,2013-03-19 09:10:00,
2013-03-19 05:12:00,29.9,28.9,29.93,SW,226,6.3,8.1,96,0.00,CLR,OVC,0.00,WeatherDisplay:10.37,2013-03-19 09:12:00,
2013-03-19 05:14:00,29.9,28.9,29.94,SW,222,7.5,9.2,96,0.00,CLR,OVC,0.00,WeatherDisplay:10.37,2013-03-19 09:14:00,
2013-03-19 05:15:00,29.9,29.2,29.94,SW,216,8.3,9.2,97,0.00,CLR,OVC,0.00,WeatherDisplay:10.37,2013-03-19 09:15:00,
2013-03-19 05:17:00,29.9,28.9,29.94,SSW,211,5.5,7.0,96,0.00,CLR,OVC,0.00,WeatherDisplay:10.37,2013-03-19 09:17:00,
2013-03-19 05:18:00,29.9,29.2,29.94,SSW,206,5.9,6.9,97,0.00,CLR,OVC,0.00,WeatherDisplay:10.37,2013-03-19 09:18:00,
2013-03-19 05:19:00,29.9,29.2,29.94,SSW,207,6.2,8.1,97,0.00,CLR,OVC,0.00,WeatherDisplay:10.37,2013-03-19 09:19:00,
2013-03-19 05:20:00,29.9,29.2,29.93,SSW,207,5.7,8.1,97,0.00,CLR,OVC,0.00,WeatherDisplay:10.37,2013-03-19 09:20:00,
2013-03-19 05:22:00,29.9,28.9,29.94,SSW,193,5.8,8.1,96,0.00,CLR,OVC,0.00,WeatherDisplay:10.37,2013-03-19 09:22:00,
2013-03-19 05:23:00,29.9,29.2,29.94,SSW,193,4.9,6.0,97,0.00,CLR,OVC,0.00,WeatherDisplay:10.37,2013-03-19 09:23:00,
2013-03-19 05:24:00,29.9,29.2,29.94,SSW,205,6.1,8.1,97,0.00,CLR,OVC,0.00,WeatherDisplay:10.37,2013-03-19 09:24:00,
2013-03-19 05:26:00,29.9,29.2,29.93,SSW,206,4.7,7.0,97,0.00,CLR,OVC,0.00,WeatherDisplay:10.37,2013-03-19 09:26:00,
2013-03-19 05:27:00,29.9,29.2,29.94,SSW,202,6.3,8.1,97,0.00,CLR,OVC,0.00,WeatherDisplay:10.37,2013-03-19 09:27:00,
2013-03-19 05:28:00,29.9,29.2,29.94,SSW,199,7.0,10.4,97,0.00,CLR,OVC,0.00,WeatherDisplay:10.37,2013-03-19 09:28:00,
2013-03-19 05:30:00,29.9,29.2,29.94,SSW,201,4.9,6.9,97,0.00,CLR,OVC,0.00,WeatherDisplay:10.37,2013-03-19 09:30:00,
2013-03-19 05:31:00,29.9,29.2,29.94,SSW,209,5.5,5.8,97,0.00,CLR,OVC,0.00,WeatherDisplay:10.37,2013-03-19 09:31:00,
2013-03-19 05:32:00,29.9,29.2,29.94,SSW,209,5.9,6.9,97,0.00,CLR,OVC,0.00,WeatherDisplay:10.37,2013-03-19 09:32:00,
2013-03-19 05:33:00,29.9,29.2,29.94,SSW,209,5.5,6.9,97,0.00,CLR,OVC,0.00,WeatherDisplay:10.37,2013-03-19 09:33:00,
2013-03-19 05:35:00,29.8,29.1,29.93,SSW,209,5.7,7.0,97,0.00,CLR,OVC,0.00,WeatherDisplay:10.37,2013-03-19 09:35:00,
2013-03-19 05:37:00,29.8,29.1,29.93,SSW,213,6.6,8.1,97,0.00,CLR,OVC,0.00,WeatherDisplay:10.37,2013-03-19 09:37:00,
2013-03-19 05:38:00,29.8,29.1,29.93,SW,214,6.1,8.1,97,0.00,CLR,OVC,0.00,WeatherDisplay:10.37,2013-03-19 09:38:00,
2013-03-19 05:40:00,29.8,29.1,29.93,SSW,213,5.3,6.9,97,0.00,CLR,OVC,0.00,WeatherDisplay:10.37,2013-03-19 09:40:00,
2013-03-19 05:42:00,29.8,29.1,29.93,SW,214,5.3,7.0,97,0.00,CLR,OVC,0.00,WeatherDisplay:10.37,2013-03-19 09:42:00,
2013-03-19 05:44:00,29.8,29.1,29.93,SW,214,5.0,6.9,97,0.00,CLR,OVC,0.00,WeatherDisplay:10.37,2013-03-19 09:44:00,
2013-03-19 05:45:00,29.8,29.1,29.93,SW,215,5.8,7.0,97,0.00,CLR,OVC,0.00,WeatherDisplay:10.37,2013-03-19 09:45:00,
2013-03-19 05:48:00,29.8,29.1,29.93,SW,214,4.1,5.8,97,0.00,CLR,OVC,0.00,WeatherDisplay:10.37,2013-03-19 09:48:00,
2013-03-19 05:49:00,29.8,29.1,29.93,SW,214,4.5,6.0,97,0.00,CLR,OVC,0.00,WeatherDisplay:10.37,2013-03-19 09:49:00,
2013-03-19 05:50:00,29.8,29.1,29.93,SW,214,4.5,5.8,97,0.00,CLR,OVC,0.00,WeatherDisplay:10.37,2013-03-19 09:50:00,
2013-03-19 05:53:00,29.8,29.1,29.93,SW,215,4.9,6.9,97,0.00,CLR,OVC,0.00,WeatherDisplay:10.37,2013-03-19 09:53:00,
2013-03-19 05:54:00,29.8,29.1,29.93,SW,214,4.9,6.9,97,0.00,CLR,OVC,0.00,WeatherDisplay:10.37,2013-03-19 09:54:00,
2013-03-19 05:55:00,29.8,29.1,29.93,SW,214,5.6,6.9,97,0.00,CLR,OVC,0.00,WeatherDisplay:10.37,2013-03-19 09:55:00,
2013-03-19 05:58:00,29.8,29.1,29.93,SSW,213,5.5,9.2,97,0.00,CLR,OVC,0.00,WeatherDisplay:10.37,2013-03-19 09:58:00,
2013-03-19 06:00:00,29.8,29.1,29.93,SSW,213,4.0,5.8,97,0.00,CLR,OVC,0.00,WeatherDisplay:10.37,2013-03-19 10:00:00,
2013-03-19 06:01:00,29.9,29.2,29.92,SSW,213,4.6,5.8,97,0.00,CLR,OVC,0.00,WeatherDisplay:10.37,2013-03-19 10:01:00,
2013-03-19 06:03:00,29.8,29.1,29.92,SW,214,5.4,6.9,97,0.00,CLR,OVC,0.00,WeatherDisplay:10.37,2013-03-19 10:03:00,
2013-03-19 06:05:00,29.8,29.1,29.92,SSW,213,4.8,5.8,97,0.00,CLR,OVC,0.00,WeatherDisplay:10.37,2013-03-19 10:05:00,
2013-03-19 06:06:00,29.8,29.1,29.92,SW,214,3.7,4.6,97,0.00,CLR,OVC,0.00,WeatherDisplay:10.37,2013-03-19 10:06:00,
2013-03-19 06:08:00,29.8,29.1,29.92,SSW,213,2.6,4.6,97,0.00,CLR,OVC,0.00,WeatherDisplay:10.37,2013-03-19 10:08:00,
2013-03-19 06:10:00,29.8,29.1,29.92,SSW,213,4.7,5.8,97,0.00,CLR,OVC,0.00,WeatherDisplay:10.37,2013-03-19 10:10:00,
2013-03-19 06:12:00,29.8,29.1,29.92,SSW,213,4.6,6.0,97,0.00,CLR,OVC,0.00,WeatherDisplay:10.37,2013-03-19 10:12:00,
2013-03-19 06:13:00,29.8,29.1,29.92,SSW,213,4.1,5.8,97,0.00,CLR,OVC,0.00,WeatherDisplay:10.37,2013-03-19 10:13:00,
2013-03-19 06:15:00,29.8,29.1,29.92,SW,214,4.0,4.6,97,0.00,CLR,OVC,0.00,WeatherDisplay:10.37,2013-03-19 10:15:00,
2013-03-19 06:17:00,29.8,29.1,29.92,SW,214,4.5,4.6,97,0.00,CLR,OVC,0.00,WeatherDisplay:10.37,2013-03-19 10:17:00,
2013-03-19 06:18:00,29.8,29.1,29.92,SSW,213,4.3,5.0,97,0.00,CLR,OVC,0.00,WeatherDisplay:10.37,2013-03-19 10:18:00,
2013-03-19 06:19:00,29.8,29.1,29.92,SSW,213,4.0,4.6,97,0.00,CLR,OVC,0.00,WeatherDisplay:10.37,2013-03-19 10:19:00,
2013-03-19 06:20:00,29.8,29.1,29.92,SSW,213,4.0,4.6,97,0.00,CLR,OVC,0.00,WeatherDisplay:10.37,2013-03-19 10:20:00,
2013-03-19 06:23:00,29.9,29.2,29.92,SSW,213,4.1,4.6,97,0.00,CLR,OVC,0.00,WeatherDisplay:10.37,2013-03-19 10:23:00,
2013-03-19 06:24:00,29.9,29.2,29.92,SSW,213,3.6,6.0,97,0.00,CLR,OVC,0.00,WeatherDisplay:10.37,2013-03-19 10:24:00,
2013-03-19 06:25:00,29.9,29.2,29.92,SSW,213,4.1,5.8,97,0.00,CLR,OVC,0.00,WeatherDisplay:10.37,2013-03-19 10:25:00,
2013-03-19 06:28:00,29.9,29.2,29.92,SSW,212,3.7,4.6,97,0.00,CLR,OVC,0.00,WeatherDisplay:10.37,2013-03-19 10:28:00,
2013-03-19 06:29:00,29.9,29.2,29.92,SSW,213,3.4,5.0,97,0.00,CLR,OVC,0.00,WeatherDisplay:10.37,2013-03-19 10:29:00,
2013-03-19 06:30:00,29.9,29.2,29.92,SSW,212,3.9,5.8,97,0.00,CLR,OVC,0.00,WeatherDisplay:10.37,2013-03-19 10:30:00,
2013-03-19 06:33:00,29.9,29.2,29.91,SSW,211,4.1,5.8,97,0.00,CLR,OVC,0.00,WeatherDisplay:10.37,2013-03-19 10:33:00,
2013-03-19 06:34:00,29.9,29.2,29.92,SSW,211,3.8,5.8,97,0.00,CLR,OVC,0.00,WeatherDisplay:10.37,2013-03-19 10:34:00,
2013-03-19 06:35:00,29.9,29.2,29.91,SSW,211,4.0,4.6,97,0.00,CLR,OVC,0.00,WeatherDisplay:10.37,2013-03-19 10:35:00,
2013-03-19 06:38:00,29.9,29.2,29.91,SSW,211,4.0,4.6,97,0.00,CLR,OVC,0.00,WeatherDisplay:10.37,2013-03-19 10:38:00,
2013-03-19 06:39:00,29.9,29.2,29.91,SSW,211,4.4,5.8,97,0.00,CLR,OVC,0.00,WeatherDisplay:10.37,2013-03-19 10:39:00,
2013-03-19 06:40:00,29.9,29.2,29.91,SSW,211,4.3,5.8,97,0.00,CLR,OVC,0.00,WeatherDisplay:10.37,2013-03-19 10:40:00,
2013-03-19 06:43:00,29.9,29.2,29.91,SSW,204,4.2,5.8,97,0.00,CLR,OVC,0.00,WeatherDisplay:10.37,2013-03-19 10:43:00,
2013-03-19 06:44:00,29.9,29.2,29.91,SSW,204,4.2,6.0,97,0.00,CLR,OVC,0.00,WeatherDisplay:10.37,2013-03-19 10:44:00,
2013-03-19 06:45:00,29.9,29.2,29.91,SSW,204,3.9,5.8,97,0.00,CLR,OVC,0.00,WeatherDisplay:10.37,2013-03-19 10:45:00,
2013-03-19 06:48:00,29.9,29.2,29.91,SSW,204,4.0,5.8,97,0.00,CLR,OVC,0.00,WeatherDisplay:10.37,2013-03-19 10:48:00,
2013-03-19 06:49:00,29.9,29.2,29.91,SSW,204,3.6,4.6,97,0.00,CLR,OVC,0.00,WeatherDisplay:10.37,2013-03-19 10:49:00,
2013-03-19 06:50:00,29.9,29.2,29.91,SSW,204,3.5,4.0,97,0.00,CLR,OVC,0.00,WeatherDisplay:10.37,2013-03-19 10:50:00,
2013-03-19 06:54:00,29.9,29.2,29.91,SSW,204,3.2,4.6,97,0.00,CLR,OVC,0.00,WeatherDisplay:10.37,2013-03-19 10:54:00,
2013-03-19 06:56:00,29.9,29.2,29.91,SSW,204,3.4,4.0,97,0.00,CLR,OVC,0.00,WeatherDisplay:10.37,2013-03-19 10:56:00,
2013-03-19 06:59:00,29.9,29.2,29.91,SSW,204,3.4,4.6,97,0.00,CLR,OVC,0.00,WeatherDisplay:10.37,2013-03-19 10:59:00,
2013-03-19 07:01:00,29.9,29.2,29.91,SSW,204,3.2,5.0,97,0.00,CLR,OVC,0.00,WeatherDisplay:10.37,2013-03-19 11:01:00,
2013-03-19 07:04:00,29.9,29.2,29.91,SSW,204,1.9,3.5,97,0.00,CLR,OVC,0.00,WeatherDisplay:10.37,2013-03-19 11:04:00,
2013-03-19 07:07:00,29.9,29.2,29.91,SSW,204,2.6,3.5,97,0.00,CLR,OVC,0.00,WeatherDisplay:10.37,2013-03-19 11:07:00,
2013-03-19 07:09:00,29.9,29.2,29.91,SSW,204,0.6,1.2,97,0.00,CLR,OVC,0.00,WeatherDisplay:10.37,2013-03-19 11:09:00,
2013-03-19 07:12:00,29.9,29.4,29.90,SSW,204,1.7,3.5,98,0.00,CLR,OVC,0.00,WeatherDisplay:10.37,2013-03-19 11:12:00,
2013-03-19 07:14:00,29.9,29.2,29.91,SSW,204,1.7,3.0,97,0.00,CLR,OVC,0.00,WeatherDisplay:10.37,2013-03-19 11:14:00,
2013-03-19 07:15:00,29.9,29.4,29.91,SSW,204,2.2,3.5,98,0.00,CLR,OVC,0.00,WeatherDisplay:10.37,2013-03-19 11:15:00,
2013-03-19 07:17:00,29.9,29.4,29.91,SSW,204,2.5,3.5,98,0.00,CLR,OVC,0.00,WeatherDisplay:10.37,2013-03-19 11:17:00,
2013-03-19 07:19:00,29.9,29.2,29.90,SSW,204,3.2,4.0,97,0.00,CLR,OVC,0.00,WeatherDisplay:10.37,2013-03-19 11:19:00,
2013-03-19 07:20:00,29.9,29.2,29.91,SSW,204,3.6,3.6,97,0.00,CLR,OVC,0.00,WeatherDisplay:10.37,2013-03-19 11:20:00,
2013-03-19 07:22:00,29.9,29.2,29.90,SSW,204,2.8,3.5,97,0.00,CLR,OVC,0.00,WeatherDisplay:10.37,2013-03-19 11:22:00,
2013-03-19 07:24:00,29.9,29.2,29.90,SSW,204,2.0,3.5,97,0.00,CLR,OVC,0.00,WeatherDisplay:10.37,2013-03-19 11:24:00,
2013-03-19 07:25:00,29.9,29.2,29.89,SSW,204,2.0,3.5,97,0.00,CLR,OVC,0.00,WeatherDisplay:10.37,2013-03-19 11:25:00,
2013-03-19 07:27:00,29.9,29.2,29.90,SSW,203,2.7,4.6,97,0.00,CLR,OVC,0.00,WeatherDisplay:10.37,2013-03-19 11:27:00,
2013-03-19 07:29:00,30.0,29.5,29.89,SSW,203,2.1,3.5,98,0.00,CLR,OVC,0.00,WeatherDisplay:10.37,2013-03-19 11:29:00,
2013-03-19 07:30:00,30.0,29.5,29.89,SSW,203,1.8,3.5,98,0.00,CLR,OVC,0.00,WeatherDisplay:10.37,2013-03-19 11:30:00,
2013-03-19 07:32:00,30.0,29.3,29.89,SSW,204,3.1,4.0,97,0.00,CLR,OVC,0.00,WeatherDisplay:10.37,2013-03-19 11:32:00,
2013-03-19 07:34:00,30.0,29.5,29.89,SSW,204,2.6,4.6,98,0.00,CLR,OVC,0.00,WeatherDisplay:10.37,2013-03-19 11:34:00,
2013-03-19 07:35:00,30.0,29.3,29.89,SSW,204,2.5,3.5,97,0.00,CLR,OVC,0.00,WeatherDisplay:10.37,2013-03-19 11:35:00,
2013-03-19 07:37:00,30.0,29.5,29.88,SSW,203,4.0,5.8,98,0.00,CLR,OVC,0.00,WeatherDisplay:10.37,2013-03-19 11:37:00,
2013-03-19 07:39:00,30.0,29.5,29.88,SSW,203,2.4,3.5,98,0.00,CLR,OVC,0.00,WeatherDisplay:10.37,2013-03-19 11:39:00,
2013-03-19 07:40:00,30.0,29.5,29.88,SSW,203,2.6,4.0,98,0.00,CLR,OVC,0.00,WeatherDisplay:10.37,2013-03-19 11:40:00,
2013-03-19 07:43:00,30.0,29.5,29.88,SSW,203,4.1,6.0,98,0.00,CLR,OVC,0.00,WeatherDisplay:10.37,2013-03-19 11:43:00,
2013-03-19 07:45:00,30.0,29.5,29.88,SSW,203,5.3,5.8,98,0.00,CLR,OVC,0.00,WeatherDisplay:10.37,2013-03-19 11:45:00,
2013-03-19 07:48:00,30.0,29.5,29.88,SSW,203,4.1,5.0,98,0.00,CLR,OVC,0.00,WeatherDisplay:10.37,2013-03-19 11:48:00,
2013-03-19 07:50:00,30.0,29.5,29.89,SSW,203,3.7,6.0,98,0.00,CLR,OVC,0.00,WeatherDisplay:10.37,2013-03-19 11:50:00,
2013-03-19 07:51:00,30.0,29.5,29.89,South,188,5.2,6.9,98,0.00,CLR,OVC,0.00,WeatherDisplay:10.37,2013-03-19 11:51:00,
2013-03-19 07:53:00,30.0,29.5,29.88,South,185,5.1,8.0,98,0.00,CLR,OVC,0.00,WeatherDisplay:10.37,2013-03-19 11:53:00,
2013-03-19 07:55:00,30.0,29.5,29.88,SSW,206,5.3,8.1,98,0.00,CLR,OVC,0.00,WeatherDisplay:10.37,2013-03-19 11:55:00,
2013-03-19 07:56:00,30.1,29.6,29.88,SSW,207,6.0,8.1,98,0.00,CLR,OVC,0.00,WeatherDisplay:10.37,2013-03-19 11:56:00,
2013-03-19 07:58:00,30.1,29.4,29.88,SSW,209,5.0,8.1,97,0.00,CLR,OVC,0.00,WeatherDisplay:10.37,2013-03-19 11:58:00,
2013-03-19 08:00:00,30.1,29.6,29.88,SSW,209,4.5,8.1,98,0.00,CLR,OVC,0.00,WeatherDisplay:10.37,2013-03-19 12:00:00,
2013-03-19 08:01:00,30.1,29.6,29.88,SSW,209,4.3,5.8,98,0.00,CLR,OVC,0.00,WeatherDisplay:10.37,2013-03-19 12:01:00,
2013-03-19 08:03:00,30.1,29.6,29.88,SSW,210,5.7,5.8,98,0.00,CLR,OVC,0.00,WeatherDisplay:10.37,2013-03-19 12:03:00,
2013-03-19 08:05:00,30.1,29.6,29.88,SSW,210,4.5,6.9,98,0.00,CLR,OVC,0.00,WeatherDisplay:10.37,2013-03-19 12:05:00,
2013-03-19 08:06:00,30.1,29.6,29.88,SSW,210,3.3,5.8,98,0.00,CLR,OVC,0.00,WeatherDisplay:10.37,2013-03-19 12:06:00,
2013-03-19 08:07:00,30.1,29.6,29.88,SSW,210,2.8,4.0,98,0.00,CLR,OVC,0.00,WeatherDisplay:10.37,2013-03-19 12:07:00,
2013-03-19 08:09:00,30.1,29.6,29.88,SSW,210,3.2,4.6,98,0.00,CLR,OVC,0.00,WeatherDisplay:10.37,2013-03-19 12:09:00,
2013-03-19 08:10:00,30.1,29.6,29.88,SSW,210,3.3,4.6,98,0.00,CLR,OVC,0.00,WeatherDisplay:10.37,2013-03-19 12:10:00,
2013-03-19 08:11:00,30.1,29.6,29.88,SSW,210,3.6,4.6,98,0.00,CLR,OVC,0.00,WeatherDisplay:10.37,2013-03-19 12:11:00,
2013-03-19 08:12:00,30.1,29.6,29.88,SSW,210,3.6,5.0,98,0.00,CLR,OVC,0.00,WeatherDisplay:10.37,2013-03-19 12:12:00,
2013-03-19 08:14:00,30.1,29.6,29.88,SSW,211,3.9,5.0,98,0.00,CLR,OVC,0.00,WeatherDisplay:10.37,2013-03-19 12:14:00,
2013-03-19 08:15:00,30.1,29.6,29.88,SSW,205,4.5,5.8,98,0.00,CLR,OVC,0.00,WeatherDisplay:10.37,2013-03-19 12:15:00,
2013-03-19 08:16:00,30.1,29.6,29.88,SSW,205,3.6,4.6,98,0.00,CLR,OVC,0.00,WeatherDisplay:10.37,2013-03-19 12:16:00,
2013-03-19 08:17:00,30.1,29.6,29.88,SSW,205,3.8,4.6,98,0.00,CLR,OVC,0.00,WeatherDisplay:10.37,2013-03-19 12:17:00,
2013-03-19 08:20:00,30.2,29.7,29.88,SSW,207,3.0,5.0,98,0.00,CLR,OVC,0.00,WeatherDisplay:10.37,2013-03-19 12:20:00,
2013-03-19 08:22:00,30.2,29.7,29.88,SSW,205,3.7,5.0,98,0.00,CLR,OVC,0.00,WeatherDisplay:10.37,2013-03-19 12:22:00,
2013-03-19 08:23:00,30.2,29.7,29.88,SSW,205,4.0,4.6,98,0.00,CLR,OVC,0.00,WeatherDisplay:10.37,2013-03-19 12:23:00,
2013-03-19 08:25:00,30.2,29.7,29.88,SSW,205,3.2,4.6,98,0.00,CLR,OVC,0.00,WeatherDisplay:10.37,2013-03-19 12:25:00,
2013-03-19 08:27:00,30.2,29.7,29.88,SSW,193,4.0,4.6,98,0.00,CLR,OVC,0.00,WeatherDisplay:10.37,2013-03-19 12:27:00,
2013-03-19 08:28:00,30.3,29.8,29.88,SSW,192,4.6,5.8,98,0.00,CLR,OVC,0.00,WeatherDisplay:10.37,2013-03-19 12:28:00,
2013-03-19 08:30:00,30.3,29.8,29.88,SSW,192,3.3,5.0,98,0.00,CLR,OVC,0.00,WeatherDisplay:10.37,2013-03-19 12:30:00,
2013-03-19 08:33:00,30.3,29.6,29.88,SSW,195,3.3,4.6,97,0.00,CLR,OVC,0.00,WeatherDisplay:10.37,2013-03-19 12:33:00,
2013-03-19 08:35:00,30.3,29.8,29.88,South,181,5.0,5.8,98,0.00,CLR,OVC,0.00,WeatherDisplay:10.37,2013-03-19 12:35:00,
2013-03-19 08:36:00,30.3,29.8,29.88,South,181,3.3,5.8,98,0.00,CLR,OVC,0.00,WeatherDisplay:10.37,2013-03-19 12:36:00,
2013-03-19 08:38:00,30.3,29.6,29.88,South,181,2.1,3.5,97,0.00,CLR,OVC,0.00,WeatherDisplay:10.37,2013-03-19 12:38:00,
2013-03-19 08:40:00,30.3,29.8,29.88,South,181,3.5,4.0,98,0.00,CLR,OVC,0.00,WeatherDisplay:10.37,2013-03-19 12:40:00,
2013-03-19 08:41:00,30.4,29.9,29.88,South,181,3.5,3.5,98,0.00,CLR,OVC,0.00,WeatherDisplay:10.37,2013-03-19 12:41:00,
2013-03-19 08:43:00,30.4,29.9,29.88,South,181,1.8,3.5,98,0.00,CLR,OVC,0.00,WeatherDisplay:10.37,2013-03-19 12:43:00,
2013-03-19 08:45:00,30.4,29.9,29.88,South,181,3.8,4.0,98,0.00,CLR,OVC,0.00,WeatherDisplay:10.37,2013-03-19 12:45:00,
2013-03-19 08:46:00,30.4,29.9,29.88,South,181,3.3,4.6,98,0.00,CLR,OVC,0.00,WeatherDisplay:10.37,2013-03-19 12:46:00,
2013-03-19 08:48:00,30.4,29.9,29.88,South,181,4.8,5.8,98,0.00,CLR,OVC,0.00,WeatherDisplay:10.37,2013-03-19 12:48:00,
2013-03-19 08:49:00,30.4,29.9,29.88,South,181,3.6,5.8,98,0.00,CLR,OVC,0.00,WeatherDisplay:10.37,2013-03-19 12:49:00,
2013-03-19 08:51:00,30.5,30.0,29.88,South,181,3.3,3.5,98,0.00,CLR,OVC,0.00,WeatherDisplay:10.37,2013-03-19 12:51:00,
2013-03-19 08:52:00,30.5,30.0,29.87,South,181,2.5,3.5,98,0.00,CLR,OVC,0.00,WeatherDisplay:10.37,2013-03-19 12:52:00,
2013-03-19 08:53:00,30.5,30.0,29.87,South,181,2.8,4.6,98,0.00,CLR,OVC,0.00,WeatherDisplay:10.37,2013-03-19 12:53:00,
2013-03-19 08:54:00,30.5,30.0,29.87,South,181,2.5,3.5,98,0.00,CLR,OVC,0.00,WeatherDisplay:10.37,2013-03-19 12:54:00,
2013-03-19 08:56:00,30.6,30.1,29.87,South,181,3.0,4.6,98,0.00,CLR,OVC,0.00,WeatherDisplay:10.37,2013-03-19 12:56:00,
2013-03-19 08:57:00,30.6,30.1,29.87,South,181,2.6,3.5,98,0.00,CLR,OVC,0.00,WeatherDisplay:10.37,2013-03-19 12:57:00,
2013-03-19 08:58:00,30.6,30.1,29.87,South,181,3.2,3.5,98,0.00,CLR,OVC,0.00,WeatherDisplay:10.37,2013-03-19 12:58:00,
2013-03-19 08:59:00,30.6,30.1,29.87,South,181,3.2,3.5,98,0.00,CLR,OVC,0.00,WeatherDisplay:10.37,2013-03-19 12:59:00,
2013-03-19 09:02:00,30.7,30.2,29.87,South,181,1.7,4.0,98,0.00,CLR,OVC,0.00,WeatherDisplay:10.37,2013-03-19 13:02:00,
2013-03-19 09:03:00,30.7,30.2,29.86,South,181,2.6,3.5,98,0.00,CLR,OVC,0.00,WeatherDisplay:10.37,2013-03-19 13:03:00,
2013-03-19 09:04:00,30.7,30.2,29.87,South,181,2.5,3.5,98,0.00,CLR,OVC,0.00,WeatherDisplay:10.37,2013-03-19 13:04:00,
2013-03-19 09:07:00,30.8,30.3,29.86,South,181,3.9,5.8,98,0.00,CLR,OVC,0.00,WeatherDisplay:10.37,2013-03-19 13:07:00,
2013-03-19 09:08:00,30.8,30.3,29.86,South,181,3.5,4.0,98,0.00,CLR,OVC,0.00,WeatherDisplay:10.37,2013-03-19 13:08:00,
2013-03-19 09:09:00,30.8,30.3,29.86,South,181,4.0,5.0,98,0.00,CLR,OVC,0.00,WeatherDisplay:10.37,2013-03-19 13:09:00,
2013-03-19 09:12:00,30.9,30.4,29.86,South,181,3.5,3.5,98,0.00,CLR,OVC,0.00,WeatherDisplay:10.37,2013-03-19 13:12:00,
2013-03-19 09:13:00,30.9,30.4,29.86,South,181,3.3,4.6,98,0.00,CLR,OVC,0.00,WeatherDisplay:10.37,2013-03-19 13:13:00,
2013-03-19 09:14:00,30.9,30.4,29.86,South,181,2.7,4.0,98,0.00,CLR,OVC,0.00,WeatherDisplay:10.37,2013-03-19 13:14:00,
2013-03-19 09:17:00,30.9,30.4,29.86,South,181,2.7,4.0,98,0.00,CLR,OVC,0.00,WeatherDisplay:10.37,2013-03-19 13:17:00,
2013-03-19 09:18:00,31.0,30.5,29.86,South,176,4.5,7.0,98,0.00,CLR,OVC,0.00,WeatherDisplay:10.37,2013-03-19 13:18:00,
2013-03-19 09:19:00,31.0,30.5,29.86,SSE,168,5.4,6.9,98,0.00,CLR,OVC,0.00,WeatherDisplay:10.37,2013-03-19 13:19:00,
2013-03-19 09:23:00,31.0,30.5,29.86,South,169,2.0,3.5,98,0.00,CLR,OVC,0.00,WeatherDisplay:10.37,2013-03-19 13:23:00,
2013-03-19 09:24:00,31.0,30.5,29.86,SSE,168,3.0,3.5,98,0.00,CLR,OVC,0.00,WeatherDisplay:10.37,2013-03-19 13:24:00,
2013-03-19 09:28:00,31.0,30.5,29.86,SSE,168,2.5,5.0,98,0.00,CLR,OVC,0.00,WeatherDisplay:10.37,2013-03-19 13:28:00,
2013-03-19 09:29:00,31.0,30.5,29.86,South,169,3.6,5.8,98,0.00,CLR,OVC,0.00,WeatherDisplay:10.37,2013-03-19 13:29:00,
2013-03-19 09:33:00,31.0,30.5,29.86,South,169,3.3,5.0,98,0.00,CLR,OVC,0.00,WeatherDisplay:10.37,2013-03-19 13:33:00,
2013-03-19 09:34:00,31.0,30.5,29.86,South,169,3.8,4.6,98,0.00,CLR,OVC,0.00,WeatherDisplay:10.37,2013-03-19 13:34:00,
2013-03-19 09:38:00,31.1,30.6,29.86,South,169,3.9,5.0,98,0.00,CLR,OVC,0.00,WeatherDisplay:10.37,2013-03-19 13:38:00,
2013-03-19 09:39:00,31.1,30.6,29.86,South,169,3.9,5.0,98,0.00,CLR,OVC,0.00,WeatherDisplay:10.37,2013-03-19 13:39:00,
2013-03-19 09:41:00,31.1,30.6,29.86,South,169,1.6,3.5,98,0.00,CLR,OVC,0.00,WeatherDisplay:10.37,2013-03-19 13:41:00,
2013-03-19 09:43:00,31.2,30.7,29.86,South,169,4.0,4.0,98,0.00,CLR,OVC,0.00,WeatherDisplay:10.37,2013-03-19 13:43:00,
2013-03-19 09:44:00,31.1,30.6,29.86,South,169,4.0,4.6,98,0.00,CLR,OVC,0.00,WeatherDisplay:10.37,2013-03-19 13:44:00,
2013-03-19 09:46:00,31.1,30.6,29.86,South,169,2.6,3.5,98,0.00,CLR,OVC,0.00,WeatherDisplay:10.37,2013-03-19 13:46:00,
2013-03-19 09:49:00,31.2,30.7,29.86,South,169,1.8,3.5,98,0.00,CLR,OVC,0.00,WeatherDisplay:10.37,2013-03-19 13:49:00,
2013-03-19 09:51:00,31.2,30.7,29.86,South,169,2.4,4.0,98,0.00,CLR,OVC,0.00,WeatherDisplay:10.37,2013-03-19 13:51:00,
2013-03-19 09:54:00,31.4,30.9,29.86,South,169,4.9,5.8,98,0.00,CLR,OVC,0.00,WeatherDisplay:10.37,2013-03-19 13:54:00,
2013-03-19 09:56:00,31.5,31.0,29.85,SSE,168,4.5,5.8,98,0.00,CLR,OVC,0.00,WeatherDisplay:10.37,2013-03-19 13:56:00,
2013-03-19 09:59:00,31.6,31.1,29.85,SSE,168,2.2,3.5,98,0.00,CLR,OVC,0.00,WeatherDisplay:10.37,2013-03-19 13:59:00,
2013-03-19 10:01:00,31.7,31.5,29.85,SSE,168,3.1,3.5,99,0.00,CLR,OVC,0.00,WeatherDisplay:10.37,2013-03-19 14:01:00,
2013-03-19 10:04:00,31.7,31.5,29.85,SSE,168,2.1,3.5,99,0.00,CLR,OVC,0.00,WeatherDisplay:10.37,2013-03-19 14:04:00,
2013-03-19 10:07:00,31.9,31.7,29.85,SSE,168,2.9,3.5,99,0.00,CLR,OVC,0.00,WeatherDisplay:10.37,2013-03-19 14:07:00,
2013-03-19 10:09:00,32.0,31.8,29.85,SSE,168,2.7,3.5,99,0.00,CLR,OVC,0.00,WeatherDisplay:10.37,2013-03-19 14:09:00,
2013-03-19 10:10:00,32.0,31.7,29.85,SSE,168,2.0,4.0,99,0.00,CLR,OVC,0.00,WeatherDisplay:10.37,2013-03-19 14:10:00,
2013-03-19 10:12:00,32.1,31.9,29.85,SSE,168,3.3,4.6,99,0.00,CLR,OVC,0.00,WeatherDisplay:10.37,2013-03-19 14:12:00,
2013-03-19 10:14:00,32.1,31.9,29.85,SSE,168,1.9,3.5,99,0.00,CLR,OVC,0.00,WeatherDisplay:10.37,2013-03-19 14:14:00,
2013-03-19 10:15:00,32.1,31.9,29.85,SSE,168,2.2,3.5,99,0.00,CLR,OVC,0.00,WeatherDisplay:10.37,2013-03-19 14:15:00,
2013-03-19 10:18:00,32.2,32.0,29.85,SSE,168,2.1,3.5,99,0.00,CLR,OVC,0.00,WeatherDisplay:10.37,2013-03-19 14:18:00,
2013-03-19 10:19:00,32.3,32.1,29.85,SSE,168,2.4,3.5,99,0.00,CLR,OVC,0.00,WeatherDisplay:10.37,2013-03-19 14:19:00,
2013-03-19 10:20:00,32.3,32.1,29.84,SSE,168,2.3,3.5,99,0.00,CLR,OVC,0.00,WeatherDisplay:10.37,2013-03-19 14:20:00,
2013-03-19 10:23:00,32.3,32.1,29.84,SSE,168,1.6,2.3,99,0.00,CLR,OVC,0.00,WeatherDisplay:10.37,2013-03-19 14:23:00,
2013-03-19 10:24:00,32.4,32.2,29.85,SSE,168,1.0,2.3,99,0.00,CLR,OVC,0.00,WeatherDisplay:10.37,2013-03-19 14:24:00,
2013-03-19 10:25:00,32.4,32.2,29.85,SSE,168,2.0,2.3,99,0.00,CLR,OVC,0.00,WeatherDisplay:10.37,2013-03-19 14:25:00,
2013-03-19 10:28:00,32.4,31.9,29.84,SSE,168,1.4,3.5,98,0.00,CLR,OVC,0.00,WeatherDisplay:10.37,2013-03-19 14:28:00,
2013-03-19 10:29:00,32.5,32.3,29.85,SSE,168,2.3,2.3,99,0.00,CLR,OVC,0.00,WeatherDisplay:10.37,2013-03-19 14:29:00,
2013-03-19 10:31:00,32.5,32.3,29.85,SSE,168,1.1,2.3,99,0.00,CLR,OVC,0.00,WeatherDisplay:10.37,2013-03-19 14:31:00,
2013-03-19 10:33:00,32.5,32.3,29.85,SSE,168,1.4,2.3,99,0.00,CLR,OVC,0.00,WeatherDisplay:10.37,2013-03-19 14:33:00,
2013-03-19 10:34:00,32.6,32.4,29.84,SSE,168,1.1,2.3,99,0.00,CLR,OVC,0.00,WeatherDisplay:10.37,2013-03-19 14:34:00,
2013-03-19 10:35:00,32.6,32.4,29.85,SSE,168,1.0,3.0,99,0.00,CLR,OVC,0.00,WeatherDisplay:10.37,2013-03-19 14:35:00,
2013-03-19 10:37:00,32.7,32.5,29.84,SSE,168,0.0,1.2,99,0.00,CLR,OVC,0.00,WeatherDisplay:10.37,2013-03-19 14:37:00,
2013-03-19 10:38:00,32.7,32.5,29.85,SSE,168,0.0,0.0,99,0.00,CLR,OVC,0.00,WeatherDisplay:10.37,2013-03-19 14:38:00,
2013-03-19 10:39:00,32.7,32.5,29.85,SSE,168,1.0,1.2,99,0.00,CLR,OVC,0.00,WeatherDisplay:10.37,2013-03-19 14:39:00,
2013-03-19 10:40:00,32.7,32.5,29.85,SSE,168,1.1,2.3,99,0.00,CLR,OVC,0.00,WeatherDisplay:10.37,2013-03-19 14:40:00,
2013-03-19 10:42:00,32.9,32.7,29.85,SSE,168,1.5,3.5,99,0.00,CLR,OVC,0.00,WeatherDisplay:10.37,2013-03-19 14:42:00,
2013-03-19 10:43:00,32.9,32.7,29.85,SSE,168,0.6,2.3,99,0.00,CLR,OVC,0.00,WeatherDisplay:10.37,2013-03-19 14:43:00,
2013-03-19 10:45:00,32.9,32.7,29.85,SSE,168,0.9,2.3,99,0.00,CLR,OVC,0.00,WeatherDisplay:10.37,2013-03-19 14:45:00,
2013-03-19 10:47:00,32.9,32.7,29.85,SSE,168,2.9,3.5,99,0.00,CLR,OVC,0.00,WeatherDisplay:10.37,2013-03-19 14:47:00,
2013-03-19 10:48:00,32.9,32.4,29.85,SSE,168,2.6,3.5,98,0.00,CLR,OVC,0.00,WeatherDisplay:10.37,2013-03-19 14:48:00,
2013-03-19 10:50:00,32.8,32.3,29.85,SSE,168,1.8,2.3,98,0.00,CLR,OVC,0.00,WeatherDisplay:10.37,2013-03-19 14:50:00,
2013-03-19 10:51:00,32.7,32.5,29.85,SSE,168,1.7,2.3,99,0.00,CLR,OVC,0.00,WeatherDisplay:10.37,2013-03-19 14:51:00,
2013-03-19 10:52:00,32.7,32.2,29.85,SSE,168,2.5,3.5,98,0.00,CLR,OVC,0.00,WeatherDisplay:10.37,2013-03-19 14:52:00,
2013-03-19 10:53:00,32.7,32.5,29.85,SSE,168,2.6,3.5,99,0.00,CLR,OVC,0.00,WeatherDisplay:10.37,2013-03-19 14:53:00,
2013-03-19 10:55:00,32.6,32.4,29.85,SSE,168,1.9,3.5,99,0.00,CLR,OVC,0.00,WeatherDisplay:10.37,2013-03-19 14:55:00,
2013-03-19 10:56:00,32.6,32.1,29.85,SSE,168,2.7,3.5,98,0.00,CLR,OVC,0.00,WeatherDisplay:10.37,2013-03-19 14:56:00,
2013-03-19 10:57:00,32.6,32.4,29.85,SSE,168,2.9,3.5,99,0.00,CLR,OVC,0.00,WeatherDisplay:10.37,2013-03-19 14:57:00,
2013-03-19 10:58:00,32.6,32.4,29.85,SSE,168,3.1,3.5,99,0.00,CLR,OVC,0.00,WeatherDisplay:10.37,2013-03-19 14:58:00,
2013-03-19 11:00:00,32.7,32.2,29.85,SSE,168,2.7,3.5,98,0.00,CLR,OVC,0.00,WeatherDisplay:10.37,2013-03-19 15:00:00,
2013-03-19 11:02:00,32.7,32.5,29.85,SSE,168,2.6,3.5,99,0.00,CLR,OVC,0.00,WeatherDisplay:10.37,2013-03-19 15:02:00,
2013-03-19 11:03:00,32.8,32.6,29.85,SSE,168,3.1,3.5,99,0.00,CLR,OVC,0.00,WeatherDisplay:10.37,2013-03-19 15:03:00,
2013-03-19 11:05:00,32.9,32.7,29.85,SSE,168,3.7,4.6,99,0.01,RA,OVC,0.01,WeatherDisplay:10.37,2013-03-19 15:05:00,
2013-03-19 11:07:00,32.9,32.7,29.85,SSE,168,3.6,4.0,99,0.01,RA,OVC,0.01,WeatherDisplay:10.37,2013-03-19 15:07:00,
2013-03-19 11:08:00,33.0,32.8,29.85,SSE,168,3.1,4.6,99,0.01,RA,OVC,0.01,WeatherDisplay:10.37,2013-03-19 15:08:00,
2013-03-19 11:10:00,33.1,32.9,29.85,SSE,168,3.5,4.6,99,0.01,RA,OVC,0.01,WeatherDisplay:10.37,2013-03-19 15:10:00,
2013-03-19 11:12:00,33.1,32.9,29.85,SSE,168,3.1,3.5,99,0.01,RA,OVC,0.01,WeatherDisplay:10.37,2013-03-19 15:12:00,
2013-03-19 11:13:00,33.2,33.0,29.85,SSE,168,2.7,3.5,99,0.01,RA,OVC,0.01,WeatherDisplay:10.37,2013-03-19 15:13:00,
2013-03-19 11:16:00,33.2,33.0,29.85,SSE,168,3.0,3.5,99,0.01,,OVC,0.01,WeatherDisplay:10.37,2013-03-19 15:16:00,
2013-03-19 11:17:00,33.2,33.0,29.84,SSE,168,2.7,3.5,99,0.01,CLR,OVC,0.01,WeatherDisplay:10.37,2013-03-19 15:17:00,
2013-03-19 11:18:00,33.2,33.0,29.84,SSE,168,2.7,3.5,99,0.01,CLR,OVC,0.01,WeatherDisplay:10.37,2013-03-19 15:18:00,
2013-03-19 11:22:00,33.2,33.0,29.84,SSE,168,2.3,3.5,99,0.02,RA,OVC,0.02,WeatherDisplay:10.37,2013-03-19 15:22:00,
2013-03-19 11:23:00,33.2,33.0,29.85,SSE,168,2.7,3.5,99,0.02,RA,OVC,0.02,WeatherDisplay:10.37,2013-03-19 15:23:00,
2013-03-19 11:27:00,33.1,32.9,29.84,SSE,168,2.6,3.5,99,0.02,RA,OVC,0.02,WeatherDisplay:10.37,2013-03-19 15:27:00,
2013-03-19 11:28:00,33.0,32.8,29.84,SSE,168,2.7,3.5,99,0.02,RA,OVC,0.02,WeatherDisplay:10.37,2013-03-19 15:28:00,
2013-03-19 11:32:00,33.0,32.8,29.84,SSE,168,2.3,3.5,99,0.02,CLR,OVC,0.02,WeatherDisplay:10.37,2013-03-19 15:32:00,
2013-03-19 11:33:00,33.0,32.8,29.84,SSE,168,1.2,3.5,99,0.02,CLR,OVC,0.02,WeatherDisplay:10.37,2013-03-19 15:33:00,
2013-03-19 11:37:00,33.0,32.8,29.83,SSE,168,2.4,3.5,99,0.02,CLR,OVC,0.02,WeatherDisplay:10.37,2013-03-19 15:37:00,
2013-03-19 11:38:00,33.0,32.8,29.83,SSE,168,2.4,3.5,99,0.03,RA,OVC,0.03,WeatherDisplay:10.37,2013-03-19 15:38:00,
2013-03-19 11:43:00,32.9,32.4,29.83,SSE,168,2.4,3.5,98,0.03,RA,OVC,0.03,WeatherDisplay:10.37,2013-03-19 15:43:00,
2013-03-19 11:44:00,32.8,32.6,29.83,SSE,168,1.4,3.5,99,0.03,RA,OVC,0.03,WeatherDisplay:10.37,2013-03-19 15:44:00,
2013-03-19 11:48:00,32.8,32.6,29.83,SSE,168,2.2,3.0,99,0.03,,OVC,0.03,WeatherDisplay:10.37,2013-03-19 15:48:00,
2013-03-19 11:49:00,32.8,32.6,29.83,SSE,168,2.8,3.5,99,0.03,,OVC,0.03,WeatherDisplay:10.37,2013-03-19 15:49:00,
2013-03-19 11:53:00,32.8,32.6,29.83,SSE,168,2.7,3.5,99,0.03,CLR,OVC,0.03,WeatherDisplay:10.37,2013-03-19 15:53:00,
2013-03-19 11:54:00,32.8,32.6,29.83,SSE,168,2.7,3.5,99,0.03,CLR,OVC,0.03,WeatherDisplay:10.37,2013-03-19 15:54:00,
2013-03-19 11:58:00,32.8,32.6,29.83,SSE,168,3.4,3.5,99,0.03,CLR,OVC,0.03,WeatherDisplay:10.37,2013-03-19 15:58:00,
2013-03-19 11:59:00,32.9,32.7,29.83,SSE,168,3.3,4.0,99,0.03,CLR,OVC,0.03,WeatherDisplay:10.37,2013-03-19 15:59:00,
2013-03-19 12:03:00,33.0,32.8,29.82,SSE,168,2.7,3.5,99,0.03,CLR,OVC,0.03,WeatherDisplay:10.37,2013-03-19 16:03:00,
2013-03-19 12:04:00,33.0,32.8,29.82,SSE,168,2.9,3.5,99,0.03,CLR,OVC,0.03,WeatherDisplay:10.37,2013-03-19 16:04:00,
2013-03-19 12:09:00,33.1,32.9,29.82,SSE,168,2.3,3.5,99,0.03,RA,OVC,0.04,WeatherDisplay:10.37,2013-03-19 16:09:00,
2013-03-19 12:14:00,33.2,33.0,29.83,SSE,168,1.6,3.5,99,0.03,RA,OVC,0.04,WeatherDisplay:10.37,2013-03-19 16:14:00,
2013-03-19 12:15:00,33.2,33.0,29.83,SSE,168,2.1,3.5,99,0.03,RA,OVC,0.04,WeatherDisplay:10.37,2013-03-19 16:15:00,
2013-03-19 12:19:00,33.3,33.0,29.83,SSE,168,2.0,3.5,99,0.03,,OVC,0.04,WeatherDisplay:10.37,2013-03-19 16:19:00,
2013-03-19 12:20:00,33.3,33.0,29.83,SSE,168,1.6,3.5,99,0.02,CLR,OVC,0.04,WeatherDisplay:10.37,2013-03-19 16:20:00,
2013-03-19 12:24:00,33.3,33.0,29.83,SSE,168,1.7,2.3,99,0.02,CLR,OVC,0.04,WeatherDisplay:10.37,2013-03-19 16:24:00,
2013-03-19 12:25:00,33.4,33.1,29.82,SSE,168,2.1,3.5,99,0.02,CLR,OVC,0.04,WeatherDisplay:10.37,2013-03-19 16:25:00,
2013-03-19 12:29:00,33.5,33.2,29.82,SSE,168,0.5,1.2,99,0.02,CLR,OVC,0.04,WeatherDisplay:10.37,2013-03-19 16:29:00,
2013-03-19 12:30:00,33.5,33.2,29.82,SSE,168,0.5,2.3,99,0.02,CLR,OVC,0.04,WeatherDisplay:10.37,2013-03-19 16:30:00,
2013-03-19 12:34:00,33.6,33.3,29.82,SSE,168,1.6,3.5,99,0.02,CLR,OVC,0.04,WeatherDisplay:10.37,2013-03-19 16:34:00,
2013-03-19 12:35:00,33.6,33.3,29.82,SSE,168,1.5,2.3,99,0.02,CLR,OVC,0.04,WeatherDisplay:10.37,2013-03-19 16:35:00,
2013-03-19 12:39:00,33.7,33.4,29.82,SSE,168,1.0,2.3,99,0.01,CLR,OVC,0.04,WeatherDisplay:10.37,2013-03-19 16:39:00,
2013-03-19 12:40:00,33.7,33.4,29.82,SSE,168,0.9,2.3,99,0.01,CLR,OVC,0.04,WeatherDisplay:10.37,2013-03-19 16:40:00,
2013-03-19 12:44:00,33.7,33.4,29.81,SSE,168,0.6,1.2,99,0.02,RA,OVC,0.05,WeatherDisplay:10.37,2013-03-19 16:44:00,
2013-03-19 12:45:00,33.7,33.4,29.81,SSE,168,0.6,1.2,99,0.02,RA,OVC,0.05,WeatherDisplay:10.37,2013-03-19 16:45:00,
2013-03-19 12:49:00,33.7,33.4,29.81,SSE,168,2.2,3.5,99,0.02,RA,OVC,0.05,WeatherDisplay:10.37,2013-03-19 16:49:00,
2013-03-19 12:50:00,33.7,33.4,29.80,SSE,168,2.2,3.5,99,0.02,RA,OVC,0.05,WeatherDisplay:10.37,2013-03-19 16:50:00,
2013-03-19 12:55:00,33.4,33.1,29.80,SSE,168,2.4,3.5,99,0.02,CLR,OVC,0.05,WeatherDisplay:10.37,2013-03-19 16:55:00,
2013-03-19 13:00:00,33.1,32.9,29.80,SSE,168,2.9,3.5,99,0.02,CLR,OVC,0.05,WeatherDisplay:10.37,2013-03-19 17:00:00,
2013-03-19 13:01:00,33.1,32.9,29.80,SSE,168,3.4,4.0,99,0.02,CLR,OVC,0.05,WeatherDisplay:10.37,2013-03-19 17:01:00,
2013-03-19 13:05:00,33.1,32.9,29.80,SSE,168,3.3,3.5,99,0.02,CLR,OVC,0.05,WeatherDisplay:10.37,2013-03-19 17:05:00,
2013-03-19 13:06:00,33.1,32.9,29.80,SSE,168,3.3,3.5,99,0.02,CLR,OVC,0.05,WeatherDisplay:10.37,2013-03-19 17:06:00,
2013-03-19 13:07:00,33.1,32.9,29.80,SSE,168,2.7,3.5,99,0.02,CLR,OVC,0.05,WeatherDisplay:10.37,2013-03-19 17:07:00,
2013-03-19 13:10:00,33.2,33.0,29.79,SSE,168,2.9,4.0,99,0.01,CLR,OVC,0.05,WeatherDisplay:10.37,2013-03-19 17:10:00,
2013-03-19 13:11:00,33.2,33.0,29.79,SSE,168,3.7,3.7,99,0.01,CLR,OVC,0.05,WeatherDisplay:10.37,2013-03-19 17:11:00,
2013-03-19 13:12:00,33.2,33.0,29.80,SSE,168,3.3,4.6,99,0.01,CLR,OVC,0.05,WeatherDisplay:10.37,2013-03-19 17:12:00,
2013-03-19 13:15:00,33.2,33.0,29.80,South,172,4.4,6.0,99,0.01,CLR,OVC,0.05,WeatherDisplay:10.37,2013-03-19 17:15:00,
2013-03-19 13:17:00,33.3,33.0,29.79,SSW,213,5.4,6.9,99,0.01,CLR,OVC,0.05,WeatherDisplay:10.37,2013-03-19 17:17:00,
2013-03-19 13:20:00,33.3,33.0,29.79,SW,222,5.7,6.9,99,0.01,CLR,OVC,0.05,WeatherDisplay:10.37,2013-03-19 17:20:00,
2013-03-19 13:22:00,33.3,33.0,29.79,SW,223,5.1,6.0,99,0.01,CLR,OVC,0.05,WeatherDisplay:10.37,2013-03-19 17:22:00,
2013-03-19 13:23:00,33.3,33.0,29.79,SW,224,5.1,5.8,99,0.01,CLR,OVC,0.05,WeatherDisplay:10.37,2013-03-19 17:23:00,
2013-03-19 13:25:00,33.3,33.0,29.79,SW,225,4.4,5.8,99,0.01,CLR,OVC,0.05,WeatherDisplay:10.37,2013-03-19 17:25:00,
2013-03-19 13:27:00,33.3,33.0,29.79,SW,224,4.8,5.8,99,0.01,CLR,OVC,0.05,WeatherDisplay:10.37,2013-03-19 17:27:00,
2013-03-19 13:28:00,33.4,33.1,29.79,SW,223,5.6,7.0,99,0.01,CLR,OVC,0.05,WeatherDisplay:10.37,2013-03-19 17:28:00,
2013-03-19 13:30:00,33.4,33.1,29.79,SW,229,6.5,8.1,99,0.01,CLR,OVC,0.05,WeatherDisplay:10.37,2013-03-19 17:30:00,
2013-03-19 13:31:00,33.4,33.1,29.79,SW,231,5.8,8.1,99,0.01,CLR,OVC,0.05,WeatherDisplay:10.37,2013-03-19 17:31:00,
2013-03-19 13:32:00,33.4,33.1,29.79,SW,232,6.0,6.9,99,0.01,CLR,OVC,0.05,WeatherDisplay:10.37,2013-03-19 17:32:00,
2013-03-19 13:33:00,33.4,33.1,29.78,SW,231,4.0,5.8,99,0.01,CLR,OVC,0.05,WeatherDisplay:10.37,2013-03-19 17:33:00,
2013-03-19 13:35:00,33.4,33.1,29.78,SSW,202,5.2,8.1,99,0.01,CLR,OVC,0.05,WeatherDisplay:10.37,2013-03-19 17:35:00,
2013-03-19 13:36:00,33.4,33.1,29.77,SSW,207,4.8,8.1,99,0.01,CLR,OVC,0.05,WeatherDisplay:10.37,2013-03-19 17:36:00,
2013-03-19 13:37:00,33.4,33.1,29.77,SSW,208,0.0,4.6,99,0.01,CLR,OVC,0.05,WeatherDisplay:10.37,2013-03-19 17:37:00,
2013-03-19 13:38:00,33.4,33.1,29.77,SSW,209,0.0,0.0,99,0.01,CLR,OVC,0.05,WeatherDisplay:10.37,2013-03-19 17:38:00,
2013-03-19 13:40:00,33.5,33.2,29.76,SSW,208,0.0,0.0,99,0.01,CLR,OVC,0.05,WeatherDisplay:10.37,2013-03-19 17:40:00,
2013-03-19 13:41:00,33.5,33.2,29.76,SSW,208,0.0,0.0,99,0.00,CLR,OVC,0.05,WeatherDisplay:10.37,2013-03-19 17:41:00,
2013-03-19 13:42:00,33.5,33.2,29.76,SSW,208,0.0,0.0,99,0.00,CLR,OVC,0.05,WeatherDisplay:10.37,2013-03-19 17:42:00,
2013-03-19 13:43:00,33.5,33.2,29.76,SSW,208,0.0,0.0,99,0.00,CLR,OVC,0.05,WeatherDisplay:10.37,2013-03-19 17:43:00,
2013-03-19 13:45:00,33.5,33.2,29.76,SSW,208,0.0,0.0,99,0.00,CLR,OVC,0.05,WeatherDisplay:10.37,2013-03-19 17:45:00,
2013-03-19 13:47:00,33.5,33.2,29.76,SSW,208,0.0,0.0,99,0.00,CLR,OVC,0.05,WeatherDisplay:10.37,2013-03-19 17:47:00,
2013-03-19 13:48:00,33.6,33.3,29.76,SSW,208,0.0,0.0,99,0.00,CLR,OVC,0.05,WeatherDisplay:10.37,2013-03-19 17:48:00,
2013-03-19 13:50:00,33.6,33.3,29.76,SSW,208,0.0,0.0,99,0.00,CLR,OVC,0.05,WeatherDisplay:10.37,2013-03-19 17:50:00,
2013-03-19 13:52:00,33.6,33.3,29.76,SSW,209,0.0,0.0,99,0.00,CLR,OVC,0.05,WeatherDisplay:10.37,2013-03-19 17:52:00,
2013-03-19 13:53:00,33.6,33.3,29.76,SSW,208,0.0,0.0,99,0.00,CLR,OVC,0.05,WeatherDisplay:10.37,2013-03-19 17:53:00,
2013-03-19 13:55:00,33.6,33.3,29.75,WSW,242,0.0,0.0,99,0.00,CLR,OVC,0.05,WeatherDisplay:10.37,2013-03-19 17:55:00,
2013-03-19 13:57:00,33.6,33.3,29.75,WSW,242,0.0,0.0,99,0.00,CLR,OVC,0.05,WeatherDisplay:10.37,2013-03-19 17:57:00,
2013-03-19 13:58:00,33.6,33.3,29.75,WSW,241,0.0,0.0,99,0.00,CLR,OVC,0.05,WeatherDisplay:10.37,2013-03-19 17:58:00,
2013-03-19 14:01:00,33.7,33.4,29.75,WSW,239,0.0,0.0,99,0.00,CLR,OVC,0.05,WeatherDisplay:10.37,2013-03-19 18:01:00,
2013-03-19 14:02:00,33.7,33.4,29.75,WSW,237,0.0,0.0,99,0.00,CLR,OVC,0.05,WeatherDisplay:10.37,2013-03-19 18:02:00,
2013-03-19 14:03:00,33.7,33.4,29.75,SW,232,0.0,0.0,99,0.00,CLR,OVC,0.05,WeatherDisplay:10.37,2013-03-19 18:03:00,
2013-03-19 14:04:00,33.7,33.4,29.75,SW,232,0.0,0.0,99,0.00,CLR,OVC,0.05,WeatherDisplay:10.37,2013-03-19 18:04:00,
2013-03-19 14:06:00,33.8,33.5,29.75,SW,232,0.0,0.0,99,0.00,CLR,OVC,0.05,WeatherDisplay:10.37,2013-03-19 18:06:00,
2013-03-19 14:08:00,33.8,33.5,29.75,SW,232,0.0,0.0,99,0.00,CLR,OVC,0.05,WeatherDisplay:10.37,2013-03-19 18:08:00,
2013-03-19 14:09:00,33.8,33.5,29.75,SW,232,0.0,0.0,99,0.00,CLR,OVC,0.05,WeatherDisplay:10.37,2013-03-19 18:09:00,
2013-03-19 14:12:00,33.9,33.6,29.75,SW,232,0.0,0.0,99,0.01,RA,OVC,0.06,WeatherDisplay:10.37,2013-03-19 18:12:00,
2013-03-19 14:13:00,33.9,33.6,29.75,SW,232,0.0,0.0,99,0.01,RA,OVC,0.06,WeatherDisplay:10.37,2013-03-19 18:13:00,
2013-03-19 14:14:00,34.0,33.7,29.75,SW,224,0.0,0.0,99,0.01,RA,OVC,0.06,WeatherDisplay:10.37,2013-03-19 18:14:00,
2013-03-19 14:17:00,34.0,34.0,29.75,SW,224,0.0,0.0,100,0.01,RA,OVC,0.06,WeatherDisplay:10.37,2013-03-19 18:17:00,
2013-03-19 14:18:00,34.0,34.0,29.75,SW,224,0.0,0.0,100,0.01,RA,OVC,0.06,WeatherDisplay:10.37,2013-03-19 18:18:00,
2013-03-19 14:19:00,34.1,34.1,29.75,SW,223,0.0,0.0,100,0.01,RA,OVC,0.06,WeatherDisplay:10.37,2013-03-19 18:19:00,
2013-03-19 14:22:00,34.1,34.1,29.75,SW,224,3.3,4.6,100,0.01,CLR,OVC,0.06,WeatherDisplay:10.37,2013-03-19 18:22:00,
2013-03-19 14:23:00,34.1,33.8,29.75,SW,223,4.3,6.9,99,0.01,CLR,OVC,0.06,WeatherDisplay:10.37,2013-03-19 18:23:00,
2013-03-19 14:24:00,34.1,34.1,29.75,SW,224,4.6,6.9,100,0.01,CLR,OVC,0.07,WeatherDisplay:10.37,2013-03-19 18:24:00,
2013-03-19 14:27:00,34.1,33.8,29.75,SW,218,3.9,4.0,99,0.02,RA,OVC,0.07,WeatherDisplay:10.37,2013-03-19 18:27:00,
2013-03-19 14:28:00,34.1,33.8,29.75,SW,218,3.6,5.8,99,0.02,RA,OVC,0.07,WeatherDisplay:10.37,2013-03-19 18:28:00,
2013-03-19 14:29:00,34.1,34.1,29.74,SSW,198,4.3,4.3,100,0.02,RA,OVC,0.07,WeatherDisplay:10.37,2013-03-19 18:29:00,
2013-03-19 14:32:00,34.1,33.8,29.74,SSW,193,2.9,4.6,99,0.02,RA,OVC,0.07,WeatherDisplay:10.37,2013-03-19 18:32:00,
2013-03-19 14:33:00,34.1,33.8,29.74,SSW,193,1.3,3.5,99,0.02,RA,OVC,0.07,WeatherDisplay:10.37,2013-03-19 18:33:00,
2013-03-19 14:34:00,34.1,33.8,29.74,SSW,193,2.1,3.5,99,0.02,RA,OVC,0.07,WeatherDisplay:10.37,2013-03-19 18:34:00,
2013-03-19 14:37:00,34.2,33.9,29.74,SSW,192,3.2,5.8,99,0.02,CLR,OVC,0.08,WeatherDisplay:10.37,2013-03-19 18:37:00,
2013-03-19 14:38:00,34.2,33.9,29.74,SSW,199,3.7,8.0,99,0.03,RA,OVC,0.08,WeatherDisplay:10.37,2013-03-19 18:38:00,
2013-03-19 14:39:00,34.2,33.9,29.74,South,191,7.1,10.4,99,0.03,RA,OVC,0.08,WeatherDisplay:10.37,2013-03-19 18:39:00,
2013-03-19 14:40:00,34.2,33.9,29.74,SSE,167,6.4,9.2,99,0.03,RA,OVC,0.08,WeatherDisplay:10.37,2013-03-19 18:40:00,
2013-03-19 14:43:00,34.3,34.0,29.74,SSE,167,2.4,3.5,99,0.03,RA,OVC,0.08,WeatherDisplay:10.37,2013-03-19 18:43:00,
2013-03-19 14:44:00,34.3,34.3,29.73,SSW,211,3.2,9.2,100,0.03,RA,OVC,0.08,WeatherDisplay:10.37,2013-03-19 18:44:00,
2013-03-19 14:45:00,34.3,34.0,29.74,SSW,211,3.3,5.8,99,0.03,RA,OVC,0.08,WeatherDisplay:10.37,2013-03-19 18:45:00,
2013-03-19 14:48:00,34.4,34.1,29.74,SSW,211,4.3,5.8,99,0.03,,OVC,0.08,WeatherDisplay:10.37,2013-03-19 18:48:00,
2013-03-19 14:50:00,34.5,34.2,29.73,SSW,211,3.1,4.6,99,0.03,,OVC,0.08,WeatherDisplay:10.37,2013-03-19 18:50:00,
2013-03-19 14:53:00,34.6,34.3,29.73,SSW,211,2.3,3.5,99,0.03,CLR,OVC,0.08,WeatherDisplay:10.37,2013-03-19 18:53:00,
2013-03-19 14:55:00,34.6,34.3,29.73,SSW,211,0.6,3.5,99,0.03,CLR,OVC,0.08,WeatherDisplay:10.37,2013-03-19 18:55:00,
2013-03-19 14:58:00,34.6,34.3,29.73,SSW,211,3.8,5.0,99,0.04,RA,OVC,0.09,WeatherDisplay:10.37,2013-03-19 18:58:00,
2013-03-19 15:00:00,34.6,34.3,29.73,SSW,212,4.1,5.8,99,0.04,RA,OVC,0.09,WeatherDisplay:10.37,2013-03-19 19:00:00,
2013-03-19 15:01:00,34.6,34.3,29.73,SSW,212,3.7,4.6,99,0.04,RA,OVC,0.09,WeatherDisplay:10.37,2013-03-19 19:01:00,
2013-03-19 15:03:00,34.6,34.3,29.73,SSW,212,4.5,5.0,99,0.04,RA,OVC,0.09,WeatherDisplay:10.37,2013-03-19 19:03:00,
2013-03-19 15:04:00,34.6,34.3,29.73,SSW,212,4.5,5.8,99,0.04,RA,OVC,0.09,WeatherDisplay:10.37,2013-03-19 19:04:00,
2013-03-19 15:05:00,34.6,34.3,29.73,SSW,212,3.3,4.6,99,0.04,RA,OVC,0.09,WeatherDisplay:10.37,2013-03-19 19:05:00,
2013-03-19 15:06:00,34.5,34.2,29.73,SSW,212,2.9,4.6,99,0.04,RA,OVC,0.09,WeatherDisplay:10.37,2013-03-19 19:06:00,
2013-03-19 15:08:00,34.5,34.2,29.73,SSW,212,2.0,3.5,99,0.04,,OVC,0.09,WeatherDisplay:10.37,2013-03-19 19:08:00,
2013-03-19 15:09:00,34.5,34.2,29.73,SSW,212,2.3,3.5,99,0.04,,OVC,0.09,WeatherDisplay:10.37,2013-03-19 19:09:00,
2013-03-19 15:10:00,34.5,34.2,29.73,SSW,212,1.0,3.5,99,0.03,CLR,OVC,0.09,WeatherDisplay:10.37,2013-03-19 19:10:00,
2013-03-19 15:11:00,34.5,34.2,29.73,SSW,212,1.0,2.3,99,0.03,CLR,OVC,0.09,WeatherDisplay:10.37,2013-03-19 19:11:00,
2013-03-19 15:14:00,34.5,34.2,29.73,SSW,212,1.9,3.5,99,0.04,RA,OVC,0.10,WeatherDisplay:10.37,2013-03-19 19:14:00,
2013-03-19 15:15:00,34.6,34.3,29.73,SSW,212,0.0,2.3,99,0.04,RA,OVC,0.10,WeatherDisplay:10.37,2013-03-19 19:15:00,
2013-03-19 15:17:00,34.6,34.3,29.73,SSW,212,2.1,3.5,99,0.04,RA,OVC,0.10,WeatherDisplay:10.37,2013-03-19 19:17:00,
2013-03-19 15:19:00,34.6,34.3,29.73,SSW,212,1.7,3.5,99,0.04,RA,OVC,0.10,WeatherDisplay:10.37,2013-03-19 19:19:00,
2013-03-19 15:22:00,34.6,34.3,29.73,SSW,212,0.6,2.0,99,0.04,RA,OVC,0.10,WeatherDisplay:10.37,2013-03-19 19:22:00,
2013-03-19 15:24:00,34.7,34.4,29.73,SSW,212,2.7,4.6,99,0.04,,OVC,0.10,WeatherDisplay:10.37,2013-03-19 19:24:00,
2013-03-19 15:27:00,34.7,34.4,29.72,South,184,2.3,5.0,99,0.03,CLR,OVC,0.10,WeatherDisplay:10.37,2013-03-19 19:27:00,
2013-03-19 15:29:00,34.8,34.5,29.72,South,174,3.9,3.9,99,0.03,CLR,OVC,0.10,WeatherDisplay:10.37,2013-03-19 19:29:00,
2013-03-19 15:30:00,34.8,34.5,29.72,South,169,3.9,5.0,99,0.03,CLR,OVC,0.10,WeatherDisplay:10.37,2013-03-19 19:30:00,
2013-03-19 15:33:00,34.9,34.6,29.72,SSE,150,2.9,4.0,99,0.03,CLR,OVC,0.10,WeatherDisplay:10.37,2013-03-19 19:33:00,
2013-03-19 15:34:00,34.9,34.6,29.72,SW,225,5.1,6.0,99,0.03,CLR,OVC,0.10,WeatherDisplay:10.37,2013-03-19 19:34:00,
2013-03-19 15:35:00,34.9,34.6,29.72,South,171,5.0,12.0,99,0.00,CLR,OVC,0.10,WeatherDisplay:10.37,2013-03-19 19:35:00,
2013-03-19 15:38:00,34.8,34.5,29.72,SSE,151,3.3,3.5,99,0.02,CLR,OVC,0.10,WeatherDisplay:10.37,2013-03-19 19:38:00,
2013-03-19 15:39:00,34.8,34.5,29.72,SW,230,6.8,8.1,99,0.02,CLR,OVC,0.10,WeatherDisplay:10.37,2013-03-19 19:39:00,
2013-03-19 15:40:00,34.8,34.5,29.72,WSW,238,6.7,8.1,99,0.02,CLR,OVC,0.10,WeatherDisplay:10.37,2013-03-19 19:40:00,
2013-03-19 15:43:00,34.7,34.4,29.71,SW,226,5.2,6.9,99,0.02,CLR,OVC,0.10,WeatherDisplay:10.37,2013-03-19 19:43:00,
2013-03-19 15:44:00,34.7,34.4,29.72,South,175,6.8,9.2,99,0.03,RA,OVC,0.11,WeatherDisplay:10.37,2013-03-19 19:44:00,
2013-03-19 15:45:00,34.7,34.4,29.72,South,175,7.2,9.2,99,0.03,RA,OVC,0.11,WeatherDisplay:10.37,2013-03-19 19:45:00,
2013-03-19 15:48:00,34.7,34.4,29.71,SSW,212,2.4,4.6,99,0.03,RA,OVC,0.11,WeatherDisplay:10.37,2013-03-19 19:48:00,
2013-03-19 15:49:00,34.8,34.5,29.72,SSW,212,3.7,5.8,99,0.03,RA,OVC,0.11,WeatherDisplay:10.37,2013-03-19 19:49:00,
2013-03-19 15:50:00,34.8,34.5,29.72,SSW,212,3.4,5.8,99,0.03,RA,OVC,0.11,WeatherDisplay:10.37,2013-03-19 19:50:00,
2013-03-19 15:53:00,34.8,34.5,29.72,SW,233,3.4,10.0,99,0.03,RA,OVC,0.11,WeatherDisplay:10.37,2013-03-19 19:53:00,
2013-03-19 15:54:00,34.8,34.5,29.72,SW,214,5.7,10.4,99,0.03,,OVC,0.11,WeatherDisplay:10.37,2013-03-19 19:54:00,
2013-03-19 15:55:00,34.8,34.3,29.72,SW,214,5.2,6.9,98,0.03,,OVC,0.11,WeatherDisplay:10.37,2013-03-19 19:55:00,
2013-03-19 15:58:00,34.7,34.2,29.72,SSW,210,1.9,4.6,98,0.02,CLR,OVC,0.11,WeatherDisplay:10.37,2013-03-19 19:58:00,
2013-03-19 15:59:00,34.8,34.5,29.71,SSW,210,1.3,3.5,99,0.02,CLR,OVC,0.11,WeatherDisplay:10.37,2013-03-19 19:59:00,
2013-03-19 16:00:00,34.8,34.3,29.72,SSW,210,1.0,3.5,98,0.02,CLR,OVC,0.11,WeatherDisplay:10.37,2013-03-19 20:00:00,
2013-03-19 16:03:00,34.9,34.6,29.72,SSW,210,3.7,4.6,99,0.02,CLR,OVC,0.11,WeatherDisplay:10.37,2013-03-19 20:03:00,
2013-03-19 16:04:00,34.9,34.4,29.72,SSW,209,2.7,4.6,98,0.02,CLR,OVC,0.12,WeatherDisplay:10.37,2013-03-19 20:04:00,
2013-03-19 16:05:00,35.0,34.5,29.71,SSW,209,2.7,3.5,98,0.03,RA,OVC,0.12,WeatherDisplay:10.37,2013-03-19 20:05:00,
2013-03-19 16:08:00,35.0,34.7,29.71,SSW,206,5.3,5.3,99,0.03,RA,OVC,0.12,WeatherDisplay:10.37,2013-03-19 20:08:00,
2013-03-19 16:10:00,35.0,34.5,29.71,SSW,199,2.7,6.0,98,0.03,RA,OVC,0.12,WeatherDisplay:10.37,2013-03-19 20:10:00,
2013-03-19 16:13:00,35.0,34.5,29.71,SSW,200,4.6,5.8,98,0.03,RA,OVC,0.12,WeatherDisplay:10.37,2013-03-19 20:13:00,
2013-03-19 16:15:00,35.1,34.6,29.71,South,190,4.6,6.9,98,0.02,,OVC,0.12,WeatherDisplay:10.37,2013-03-19 20:15:00,
2013-03-19 16:18:00,35.1,34.6,29.71,SSW,197,3.4,6.9,98,0.02,CLR,OVC,0.12,WeatherDisplay:10.37,2013-03-19 20:18:00,
2013-03-19 16:19:00,35.1,34.6,29.71,SSW,196,3.3,5.0,98,0.02,CLR,OVC,0.12,WeatherDisplay:10.37,2013-03-19 20:19:00,
2013-03-19 16:20:00,35.1,34.8,29.71,SSW,196,3.9,4.6,99,0.02,CLR,OVC,0.12,WeatherDisplay:10.37,2013-03-19 20:20:00,
2013-03-19 16:24:00,35.0,34.5,29.70,SW,231,5.1,6.9,98,0.02,CLR,OVC,0.12,WeatherDisplay:10.37,2013-03-19 20:24:00,
2013-03-19 16:25:00,34.9,34.4,29.70,WSW,249,5.3,7.0,98,0.02,CLR,OVC,0.12,WeatherDisplay:10.37,2013-03-19 20:25:00,
2013-03-19 16:29:00,34.8,34.3,29.70,SSW,201,3.3,5.0,98,0.02,CLR,OVC,0.12,WeatherDisplay:10.37,2013-03-19 20:29:00,
2013-03-19 16:30:00,34.9,34.4,29.71,SSW,200,3.7,5.8,98,0.02,CLR,OVC,0.12,WeatherDisplay:10.37,2013-03-19 20:30:00,
2013-03-19 16:34:00,34.9,34.4,29.71,SSW,204,4.5,6.9,98,0.03,RA,OVC,0.13,WeatherDisplay:10.37,2013-03-19 20:34:00,
2013-03-19 16:35:00,34.9,34.4,29.71,SSW,208,5.3,8.0,98,0.03,RA,OVC,0.13,WeatherDisplay:10.37,2013-03-19 20:35:00,
2013-03-19 16:39:00,34.8,34.3,29.71,SSW,203,2.4,3.5,98,0.03,RA,OVC,0.13,WeatherDisplay:10.37,2013-03-19 20:39:00,
2013-03-19 16:40:00,34.8,34.3,29.71,SSW,203,1.5,4.0,98,0.03,RA,OVC,0.13,WeatherDisplay:10.37,2013-03-19 20:40:00,
2013-03-19 16:44:00,34.7,33.9,29.71,SW,217,3.4,4.6,97,0.02,,OVC,0.13,WeatherDisplay:10.37,2013-03-19 20:44:00,
2013-03-19 16:45:00,34.7,34.2,29.71,SW,217,2.9,3.5,98,0.02,CLR,OVC,0.13,WeatherDisplay:10.37,2013-03-19 20:45:00,
2013-03-19 16:49:00,34.6,34.1,29.71,SW,217,4.2,5.0,98,0.02,CLR,OVC,0.13,WeatherDisplay:10.37,2013-03-19 20:49:00,
2013-03-19 16:50:00,34.6,34.1,29.71,SW,218,4.4,5.8,98,0.02,CLR,OVC,0.13,WeatherDisplay:10.37,2013-03-19 20:50:00,
2013-03-19 16:54:00,34.6,33.8,29.72,SW,236,3.8,6.9,97,0.02,CLR,OVC,0.13,WeatherDisplay:10.37,2013-03-19 20:54:00,
2013-03-19 16:55:00,34.6,33.8,29.72,SW,236,3.3,5.8,97,0.02,CLR,OVC,0.13,WeatherDisplay:10.37,2013-03-19 20:55:00,
2013-03-19 16:56:00,34.6,33.8,29.71,WSW,237,3.4,5.0,97,0.02,CLR,OVC,0.13,WeatherDisplay:10.37,2013-03-19 20:56:00,
2013-03-19 16:59:00,34.6,33.8,29.72,WNW,287,2.6,3.0,97,0.02,CLR,OVC,0.13,WeatherDisplay:10.37,2013-03-19 20:59:00,
2013-03-19 17:00:00,34.6,33.8,29.72,WNW,287,2.8,4.6,97,0.02,CLR,OVC,0.14,WeatherDisplay:10.37,2013-03-19 21:00:00,
2013-03-19 17:01:00,34.6,33.8,29.72,WNW,287,2.5,4.6,97,0.03,RA,OVC,0.14,WeatherDisplay:10.37,2013-03-19 21:01:00,
2013-03-19 17:04:00,34.5,34.0,29.72,WNW,287,1.5,3.5,98,0.03,RA,OVC,0.14,WeatherDisplay:10.37,2013-03-19 21:04:00,
2013-03-19 17:05:00,34.5,33.7,29.72,WNW,287,1.3,3.5,97,0.02,RA,OVC,0.14,WeatherDisplay:10.37,2013-03-19 21:05:00,
2013-03-19 17:06:00,34.5,34.0,29.72,WNW,287,1.6,3.0,98,0.02,RA,OVC,0.14,WeatherDisplay:10.37,2013-03-19 21:06:00,
2013-03-19 17:09:00,34.5,33.7,29.72,WNW,287,1.7,3.5,97,0.02,RA,OVC,0.14,WeatherDisplay:10.37,2013-03-19 21:09:00,
2013-03-19 17:10:00,34.5,33.7,29.72,WNW,287,0.8,3.5,97,0.02,RA,OVC,0.14,WeatherDisplay:10.37,2013-03-19 21:10:00,
2013-03-19 17:11:00,34.5,33.7,29.72,WNW,287,0.7,2.3,97,0.02,,OVC,0.14,WeatherDisplay:10.37,2013-03-19 21:11:00,
2013-03-19 17:12:00,34.5,33.7,29.72,WNW,287,1.1,3.5,97,0.02,,OVC,0.14,WeatherDisplay:10.37,2013-03-19 21:12:00,
2013-03-19 17:15:00,34.6,34.1,29.72,WNW,286,0.6,2.3,98,0.02,CLR,OVC,0.14,WeatherDisplay:10.37,2013-03-19 21:15:00,
2013-03-19 17:17:00,34.6,33.8,29.72,WNW,286,0.1,1.2,97,0.02,CLR,OVC,0.14,WeatherDisplay:10.37,2013-03-19 21:17:00,
2013-03-19 17:20:00,34.6,33.8,29.72,WNW,286,0.8,1.2,97,0.02,CLR,OVC,0.14,WeatherDisplay:10.37,2013-03-19 21:20:00,
2013-03-19 17:22:00,34.7,34.2,29.72,WNW,286,0.0,1.2,98,0.02,CLR,OVC,0.14,WeatherDisplay:10.37,2013-03-19 21:22:00,
2013-03-19 17:25:00,34.8,34.0,29.72,WNW,286,0.0,0.0,97,0.02,CLR,OVC,0.14,WeatherDisplay:10.37,2013-03-19 21:25:00,
2013-03-19 17:27:00,34.9,34.1,29.72,WNW,287,0.0,0.0,97,0.02,CLR,OVC,0.14,WeatherDisplay:10.37,2013-03-19 21:27:00,
2013-03-19 17:30:00,34.8,34.0,29.72,WNW,287,0.1,1.2,97,0.02,CLR,OVC,0.14,WeatherDisplay:10.37,2013-03-19 21:30:00,
2013-03-19 17:33:00,34.8,34.3,29.72,WNW,287,0.0,0.0,98,0.01,CLR,OVC,0.14,WeatherDisplay:10.37,2013-03-19 21:33:00,
2013-03-19 17:35:00,34.9,34.1,29.72,WNW,286,0.0,0.0,97,0.01,CLR,OVC,0.14,WeatherDisplay:10.37,2013-03-19 21:35:00,
2013-03-19 17:38:00,34.9,34.4,29.72,WNW,286,0.0,0.0,98,0.01,CLR,OVC,0.15,WeatherDisplay:10.37,2013-03-19 21:38:00,
2013-03-19 17:40:00,35.0,34.2,29.72,WNW,286,0.0,0.0,97,0.02,RA,OVC,0.15,WeatherDisplay:10.37,2013-03-19 21:40:00,
2013-03-19 17:43:00,34.9,34.4,29.72,WNW,287,0.0,0.0,98,0.02,RA,OVC,0.15,WeatherDisplay:10.37,2013-03-19 21:43:00,
2013-03-19 17:45:00,34.9,34.4,29.72,WNW,286,0.0,1.0,98,0.02,RA,OVC,0.15,WeatherDisplay:10.37,2013-03-19 21:45:00,
2013-03-19 17:48:00,34.8,34.0,29.72,WNW,287,0.0,0.0,97,0.02,,OVC,0.15,WeatherDisplay:10.37,2013-03-19 21:48:00,
2013-03-19 17:50:00,34.8,34.0,29.72,WNW,287,0.0,1.2,97,0.02,CLR,OVC,0.15,WeatherDisplay:10.37,2013-03-19 21:50:00,
2013-03-19 17:51:00,34.8,34.0,29.72,WNW,287,0.0,0.0,97,0.02,CLR,OVC,0.15,WeatherDisplay:10.37,2013-03-19 21:51:00,
2013-03-19 17:53:00,34.8,34.3,29.72,WNW,286,0.0,0.0,98,0.02,CLR,OVC,0.15,WeatherDisplay:10.37,2013-03-19 21:53:00,
2013-03-19 17:56:00,34.9,34.1,29.72,WNW,286,0.0,0.0,97,0.02,CLR,OVC,0.15,WeatherDisplay:10.37,2013-03-19 21:56:00,
2013-03-19 17:58:00,34.8,34.0,29.72,WNW,286,0.0,0.0,97,0.02,CLR,OVC,0.15,WeatherDisplay:10.37,2013-03-19 21:58:00,
2013-03-19 18:01:00,34.8,34.0,29.71,WNW,287,0.0,0.0,97,0.02,CLR,OVC,0.15,WeatherDisplay:10.37,2013-03-19 22:01:00,
2013-03-19 18:02:00,34.8,34.0,29.71,WNW,286,0.0,0.0,97,0.01,CLR,OVC,0.15,WeatherDisplay:10.37,2013-03-19 22:02:00,
2013-03-19 18:03:00,34.7,33.9,29.71,WNW,286,0.0,0.0,97,0.01,CLR,OVC,0.15,WeatherDisplay:10.37,2013-03-19 22:03:00,
2013-03-19 18:06:00,34.8,34.0,29.71,WNW,287,0.0,0.0,97,0.02,RA,OVC,0.16,WeatherDisplay:10.37,2013-03-19 22:06:00,
2013-03-19 18:07:00,34.8,34.0,29.71,WNW,286,0.0,0.0,97,0.02,RA,OVC,0.16,WeatherDisplay:10.37,2013-03-19 22:07:00,
2013-03-19 18:08:00,34.8,34.0,29.71,WNW,286,0.0,0.0,97,0.02,RA,OVC,0.16,WeatherDisplay:10.37,2013-03-19 22:08:00,
2013-03-19 18:11:00,34.9,34.1,29.71,WNW,286,0.1,1.0,97,0.02,RA,OVC,0.16,WeatherDisplay:10.37,2013-03-19 22:11:00,
2013-03-19 18:13:00,34.9,34.4,29.71,WNW,287,0.9,1.2,98,0.02,RA,OVC,0.16,WeatherDisplay:10.37,2013-03-19 22:13:00,
2013-03-19 18:17:00,34.9,34.1,29.71,WNW,286,0.0,0.0,97,0.02,,OVC,0.16,WeatherDisplay:10.37,2013-03-19 22:17:00,
2013-03-19 18:18:00,34.9,34.1,29.71,WNW,286,0.0,0.0,97,0.02,CLR,OVC,0.16,WeatherDisplay:10.37,2013-03-19 22:18:00,
2013-03-19 18:19:00,34.9,34.1,29.72,WNW,286,0.0,0.0,97,0.02,CLR,OVC,0.16,WeatherDisplay:10.37,2013-03-19 22:19:00,
2013-03-19 18:22:00,34.8,34.0,29.71,WNW,286,0.1,0.0,97,0.02,CLR,OVC,0.16,WeatherDisplay:10.37,2013-03-19 22:22:00,
2013-03-19 18:23:00,34.8,34.0,29.71,WNW,286,0.1,1.2,97,0.02,CLR,OVC,0.16,WeatherDisplay:10.37,2013-03-19 22:23:00,
2013-03-19 18:24:00,34.8,34.0,29.71,WNW,286,0.0,1.2,97,0.02,CLR,OVC,0.16,WeatherDisplay:10.37,2013-03-19 22:24:00,
2013-03-19 18:27:00,34.7,33.9,29.71,WNW,287,0.2,1.2,97,0.02,CLR,OVC,0.16,WeatherDisplay:10.37,2013-03-19 22:27:00,
2013-03-19 18:29:00,34.7,33.9,29.71,WNW,286,0.1,1.2,97,0.02,CLR,OVC,0.16,WeatherDisplay:10.37,2013-03-19 22:29:00,
2013-03-19 18:33:00,34.6,33.8,29.70,WNW,287,0.0,0.0,97,0.02,CLR,OVC,0.16,WeatherDisplay:10.37,2013-03-19 22:33:00,
2013-03-19 18:34:00,34.6,33.8,29.71,WNW,286,0.0,0.0,97,0.02,CLR,OVC,0.16,WeatherDisplay:10.37,2013-03-19 22:34:00,
2013-03-19 18:38:00,34.5,33.7,29.71,WNW,286,0.4,1.2,97,0.01,CLR,OVC,0.16,WeatherDisplay:10.37,2013-03-19 22:38:00,
2013-03-19 18:39:00,34.5,33.7,29.71,WNW,287,0.8,1.2,97,0.01,CLR,OVC,0.16,WeatherDisplay:10.37,2013-03-19 22:39:00,
2013-03-19 18:44:00,34.3,33.5,29.71,WNW,286,0.0,0.0,97,0.01,CLR,OVC,0.16,WeatherDisplay:10.37,2013-03-19 22:44:00,
2013-03-19 18:45:00,34.3,33.5,29.71,WNW,286,0.0,0.0,97,0.01,CLR,OVC,0.16,WeatherDisplay:10.37,2013-03-19 22:45:00,
2013-03-19 18:49:00,34.3,33.5,29.71,WNW,286,0.0,0.0,97,0.01,CLR,OVC,0.16,WeatherDisplay:10.37,2013-03-19 22:49:00,
2013-03-19 18:50:00,34.2,33.4,29.71,WNW,287,0.0,0.0,97,0.01,CLR,OVC,0.16,WeatherDisplay:10.37,2013-03-19 22:50:00,
2013-03-19 18:54:00,34.2,33.4,29.71,WNW,287,0.2,1.2,97,0.01,CLR,OVC,0.16,WeatherDisplay:10.37,2013-03-19 22:54:00,
2013-03-19 18:55:00,34.2,33.4,29.71,WNW,286,0.0,0.0,97,0.01,CLR,OVC,0.16,WeatherDisplay:10.37,2013-03-19 22:55:00,
2013-03-19 18:59:00,34.2,33.4,29.71,WNW,286,0.0,0.0,97,0.01,CLR,OVC,0.16,WeatherDisplay:10.37,2013-03-19 22:59:00,
2013-03-19 19:00:00,34.2,33.4,29.71,WNW,287,0.0,0.0,97,0.01,CLR,OVC,0.16,WeatherDisplay:10.37,2013-03-19 23:00:00,
2013-03-19 19:01:00,34.2,33.4,29.71,WNW,287,0.0,0.0,97,0.01,CLR,OVC,0.16,WeatherDisplay:10.37,2013-03-19 23:01:00,
2013-03-19 19:04:00,34.1,33.3,29.71,WNW,287,0.0,0.0,97,0.01,CLR,OVC,0.16,WeatherDisplay:10.37,2013-03-19 23:04:00,
2013-03-19 19:05:00,34.1,33.3,29.71,WNW,287,0.0,0.0,97,0.01,CLR,OVC,0.16,WeatherDisplay:10.37,2013-03-19 23:05:00,
2013-03-19 19:06:00,34.1,33.3,29.71,WNW,286,0.0,0.0,97,0.00,CLR,OVC,0.16,WeatherDisplay:10.37,2013-03-19 23:06:00,
2013-03-19 19:09:00,34.1,33.3,29.71,WNW,286,0.0,0.0,97,0.01,RA,OVC,0.17,WeatherDisplay:10.37,2013-03-19 23:09:00,
2013-03-19 19:10:00,34.1,33.3,29.71,WNW,286,0.0,0.0,97,0.01,RA,OVC,0.17,WeatherDisplay:10.37,2013-03-19 23:10:00,
2013-03-19 19:11:00,34.1,33.3,29.71,WNW,286,0.0,0.0,97,0.01,RA,OVC,0.17,WeatherDisplay:10.37,2013-03-19 23:11:00,
2013-03-19 19:14:00,34.0,33.2,29.71,WNW,286,0.0,0.0,97,0.01,RA,OVC,0.17,WeatherDisplay:10.37,2013-03-19 23:14:00,
2013-03-19 19:15:00,34.0,33.2,29.71,WNW,286,0.0,0.0,97,0.01,RA,OVC,0.17,WeatherDisplay:10.37,2013-03-19 23:15:00,
2013-03-19 19:16:00,34.0,33.2,29.71,WNW,286,0.0,0.0,97,0.01,RA,OVC,0.17,WeatherDisplay:10.37,2013-03-19 23:16:00,
2013-03-19 19:19:00,34.0,33.2,29.71,WNW,287,0.0,0.0,97,0.01,,OVC,0.17,WeatherDisplay:10.37,2013-03-19 23:19:00,
2013-03-19 19:20:00,34.0,33.2,29.71,WNW,286,0.0,0.0,97,0.01,CLR,OVC,0.17,WeatherDisplay:10.37,2013-03-19 23:20:00,
2013-03-19 19:21:00,34.0,33.2,29.71,WNW,286,0.0,0.0,97,0.01,CLR,OVC,0.17,WeatherDisplay:10.37,2013-03-19 23:21:00,
2013-03-19 19:25:00,34.0,33.2,29.71,WNW,286,0.0,0.0,97,0.00,CLR,OVC,0.17,WeatherDisplay:10.37,2013-03-19 23:25:00,
2013-03-19 19:26:00,34.0,33.2,29.71,WNW,286,0.0,0.0,97,0.01,CLR,OVC,0.17,WeatherDisplay:10.37,2013-03-19 23:26:00,
2013-03-19 19:30:00,34.0,33.2,29.71,WNW,287,0.0,0.0,97,0.01,CLR,OVC,0.17,WeatherDisplay:10.37,2013-03-19 23:30:00,
2013-03-19 19:31:00,34.0,33.2,29.71,WNW,286,0.0,0.0,97,0.01,CLR,OVC,0.17,WeatherDisplay:10.37,2013-03-19 23:31:00,
2013-03-19 19:35:00,34.0,33.2,29.71,WNW,286,0.0,0.0,97,0.01,CLR,OVC,0.17,WeatherDisplay:10.37,2013-03-19 23:35:00,
2013-03-19 19:36:00,33.9,33.1,29.71,WNW,286,0.0,0.0,97,0.01,CLR,OVC,0.17,WeatherDisplay:10.37,2013-03-19 23:36:00,
2013-03-19 19:37:00,34.0,33.2,29.72,WNW,286,0.0,0.0,97,0.01,CLR,OVC,0.17,WeatherDisplay:10.37,2013-03-19 23:37:00,
2013-03-19 19:40:00,34.0,33.2,29.71,WNW,286,0.0,0.0,97,0.01,CLR,OVC,0.17,WeatherDisplay:10.37,2013-03-19 23:40:00,
2013-03-19 19:42:00,34.0,33.2,29.71,WNW,286,0.0,0.0,97,0.01,CLR,OVC,0.17,WeatherDisplay:10.37,2013-03-19 23:42:00,
2013-03-19 19:45:00,33.9,33.1,29.71,WNW,286,0.0,0.0,97,0.01,CLR,OVC,0.17,WeatherDisplay:10.37,2013-03-19 23:45:00,
2013-03-19 19:47:00,33.9,33.1,29.71,WNW,286,0.0,0.0,97,0.01,CLR,OVC,0.17,WeatherDisplay:10.37,2013-03-19 23:47:00,
2013-03-19 19:48:00,34.0,33.2,29.71,WNW,286,0.0,0.0,97,0.01,CLR,OVC,0.17,WeatherDisplay:10.37,2013-03-19 23:48:00,
2013-03-19 19:50:00,33.9,33.1,29.72,WNW,286,0.0,0.0,97,0.01,CLR,OVC,0.17,WeatherDisplay:10.37,2013-03-19 23:50:00,
2013-03-19 19:52:00,33.9,33.1,29.72,WNW,286,0.0,0.0,97,0.01,CLR,OVC,0.17,WeatherDisplay:10.37,2013-03-19 23:52:00,
2013-03-19 19:53:00,33.9,33.1,29.72,WNW,286,0.0,0.0,97,0.01,CLR,OVC,0.17,WeatherDisplay:10.37,2013-03-19 23:53:00,
2013-03-19 19:55:00,33.9,33.1,29.72,WNW,286,0.0,0.0,97,0.01,CLR,OVC,0.17,WeatherDisplay:10.37,2013-03-19 23:55:00,
2013-03-19 19:56:00,33.9,33.1,29.72,WNW,286,0.0,0.0,97,0.01,CLR,OVC,0.17,WeatherDisplay:10.37,2013-03-19 23:56:00,
2013-03-19 19:57:00,33.9,33.1,29.72,WNW,286,0.2,1.2,97,0.01,CLR,OVC,0.17,WeatherDisplay:10.37,2013-03-19 23:57:00,
2013-03-19 19:59:00,33.9,33.1,29.72,WNW,286,0.0,0.0,97,0.01,CLR,OVC,0.17,WeatherDisplay:10.37,2013-03-19 23:59:00,
2013-03-19 20:00:00,33.9,33.1,29.72,WNW,286,0.0,0.0,97,0.01,CLR,OVC,0.17,WeatherDisplay:10.37,2013-03-20 00:00:00,
2013-03-19 20:02:00,33.8,33.0,29.72,WNW,286,0.0,0.0,97,0.01,CLR,OVC,0.17,WeatherDisplay:10.37,2013-03-20 00:02:00,
2013-03-19 20:05:00,33.8,33.0,29.72,WNW,286,0.0,0.0,97,0.01,CLR,OVC,0.17,WeatherDisplay:10.37,2013-03-20 00:05:00,
2013-03-19 20:07:00,33.8,33.0,29.72,WNW,286,0.0,0.0,97,0.01,CLR,OVC,0.17,WeatherDisplay:10.37,2013-03-20 00:07:00,
2013-03-19 20:10:00,33.7,33.2,29.72,WNW,287,0.0,0.0,98,0.00,CLR,OVC,0.17,WeatherDisplay:10.37,2013-03-20 00:10:00,
2013-03-19 20:12:00,33.7,32.9,29.72,WNW,286,0.0,0.0,97,0.00,CLR,OVC,0.17,WeatherDisplay:10.37,2013-03-20 00:12:00,
2013-03-19 20:13:00,33.7,32.9,29.72,WNW,286,0.0,0.0,97,0.00,CLR,OVC,0.17,WeatherDisplay:10.37,2013-03-20 00:13:00,
2013-03-19 20:15:00,33.7,33.2,29.72,WNW,286,0.0,0.0,98,0.00,CLR,OVC,0.17,WeatherDisplay:10.37,2013-03-20 00:15:00,
2013-03-19 20:18:00,33.7,33.2,29.72,WNW,286,0.0,0.0,98,0.00,CLR,OVC,0.17,WeatherDisplay:10.37,2013-03-20 00:18:00,
2013-03-19 20:20:00,33.6,32.8,29.72,WNW,286,0.0,0.0,97,0.00,CLR,OVC,0.17,WeatherDisplay:10.37,2013-03-20 00:20:00,
2013-03-19 20:23:00,33.6,32.8,29.72,WNW,287,0.0,0.0,97,0.00,CLR,OVC,0.17,WeatherDisplay:10.37,2013-03-20 00:23:00,
2013-03-19 20:25:00,33.6,32.8,29.72,WNW,286,0.4,1.2,97,0.00,CLR,OVC,0.17,WeatherDisplay:10.37,2013-03-20 00:25:00,
2013-03-19 20:28:00,33.6,32.8,29.72,WNW,286,0.0,0.0,97,0.00,CLR,OVC,0.17,WeatherDisplay:10.37,2013-03-20 00:28:00,
2013-03-19 20:30:00,33.5,32.7,29.72,WNW,286,0.0,0.0,97,0.00,CLR,OVC,0.17,WeatherDisplay:10.37,2013-03-20 00:30:00,
2013-03-19 20:31:00,33.5,33.0,29.72,WNW,286,0.0,0.0,98,0.00,CLR,OVC,0.17,WeatherDisplay:10.37,2013-03-20 00:31:00,
2013-03-19 20:33:00,33.5,32.7,29.72,WNW,286,0.0,0.0,97,0.00,CLR,OVC,0.17,WeatherDisplay:10.37,2013-03-20 00:33:00,
2013-03-19 20:36:00,33.5,32.7,29.72,WNW,286,0.0,0.0,97,0.00,CLR,OVC,0.17,WeatherDisplay:10.37,2013-03-20 00:36:00,
2013-03-19 20:38:00,33.4,32.6,29.72,WNW,286,0.0,0.0,97,0.00,CLR,OVC,0.17,WeatherDisplay:10.37,2013-03-20 00:38:00,
2013-03-19 20:39:00,33.4,32.6,29.72,WNW,286,0.0,0.0,97,0.00,CLR,OVC,0.17,WeatherDisplay:10.37,2013-03-20 00:39:00,
2013-03-19 20:41:00,33.4,32.6,29.72,WNW,286,0.0,0.0,97,0.00,CLR,OVC,0.17,WeatherDisplay:10.37,2013-03-20 00:41:00,
2013-03-19 20:43:00,33.4,32.6,29.72,WNW,286,0.6,1.2,97,0.00,CLR,OVC,0.17,WeatherDisplay:10.37,2013-03-20 00:43:00,
2013-03-19 20:44:00,33.4,32.6,29.72,WNW,286,0.8,2.3,97,0.00,CLR,OVC,0.17,WeatherDisplay:10.37,2013-03-20 00:44:00,
2013-03-19 20:46:00,33.4,32.6,29.72,WNW,286,1.4,3.0,97,0.00,CLR,OVC,0.17,WeatherDisplay:10.37,2013-03-20 00:46:00,
2013-03-19 20:47:00,33.3,32.5,29.72,WNW,286,0.6,3.5,97,0.00,CLR,OVC,0.17,WeatherDisplay:10.37,2013-03-20 00:47:00,
2013-03-19 20:49:00,33.3,32.5,29.72,WNW,286,0.6,2.3,97,0.00,CLR,OVC,0.17,WeatherDisplay:10.37,2013-03-20 00:49:00,
2013-03-19 20:51:00,33.3,32.8,29.72,WNW,285,1.4,3.5,98,0.00,CLR,OVC,0.17,WeatherDisplay:10.37,2013-03-20 00:51:00,
2013-03-19 20:52:00,33.3,32.8,29.72,WNW,284,1.2,3.0,98,0.00,CLR,OVC,0.17,WeatherDisplay:10.37,2013-03-20 00:52:00,
2013-03-19 20:54:00,33.3,32.5,29.72,West,281,2.4,3.5,97,0.00,CLR,OVC,0.17,WeatherDisplay:10.37,2013-03-20 00:54:00,
2013-03-19 20:57:00,33.2,32.4,29.72,SSW,206,2.8,4.6,97,0.00,CLR,OVC,0.17,WeatherDisplay:10.37,2013-03-20 00:57:00,
2013-03-19 20:59:00,33.1,32.3,29.72,SSW,202,3.7,4.6,97,0.00,CLR,OVC,0.17,WeatherDisplay:10.37,2013-03-20 00:59:00,
2013-03-19 21:02:00,33.1,32.3,29.72,SSW,198,2.1,3.5,97,0.00,CLR,OVC,0.17,WeatherDisplay:10.37,2013-03-20 01:02:00,
2013-03-19 21:03:00,33.1,32.3,29.72,SSW,198,1.2,3.5,97,0.00,CLR,OVC,0.17,WeatherDisplay:10.37,2013-03-20 01:03:00,
2013-03-19 21:04:00,33.1,32.3,29.72,SSW,202,3.5,5.8,97,0.00,CLR,OVC,0.17,WeatherDisplay:10.37,2013-03-20 01:04:00,
2013-03-19 21:07:00,33.1,32.3,29.72,SSW,202,2.4,3.5,97,0.00,CLR,OVC,0.17,WeatherDisplay:10.37,2013-03-20 01:07:00,
2013-03-19 21:08:00,33.1,32.3,29.72,SSW,202,2.3,3.5,97,0.00,CLR,OVC,0.17,WeatherDisplay:10.37,2013-03-20 01:08:00,
2013-03-19 21:09:00,33.1,32.3,29.72,SSW,202,1.8,3.5,97,0.00,CLR,OVC,0.17,WeatherDisplay:10.37,2013-03-20 01:09:00,
2013-03-19 21:12:00,33.1,32.6,29.72,SSW,202,2.6,3.5,98,0.00,CLR,OVC,0.17,WeatherDisplay:10.37,2013-03-20 01:12:00,
2013-03-19 21:13:00,33.1,32.6,29.72,SSW,202,2.3,3.5,98,0.00,CLR,OVC,0.17,WeatherDisplay:10.37,2013-03-20 01:13:00,
2013-03-19 21:14:00,33.1,32.3,29.72,SSW,202,1.3,2.3,97,0.00,CLR,OVC,0.17,WeatherDisplay:10.37,2013-03-20 01:14:00,
2013-03-19 21:15:00,33.1,32.3,29.73,SSW,202,1.3,2.3,97,0.00,CLR,OVC,0.17,WeatherDisplay:10.37,2013-03-20 01:15:00,
2013-03-19 21:17:00,33.1,32.6,29.73,SSW,202,1.7,3.5,98,0.00,CLR,OVC,0.17,WeatherDisplay:10.37,2013-03-20 01:17:00,
2013-03-19 21:18:00,33.1,32.3,29.73,SSW,202,1.5,2.3,97,0.00,CLR,OVC,0.17,WeatherDisplay:10.37,2013-03-20 01:18:00,
2013-03-19 21:19:00,33.0,32.2,29.73,SSW,202,1.3,2.3,97,0.00,CLR,OVC,0.17,WeatherDisplay:10.37,2013-03-20 01:19:00,
2013-03-19 21:20:00,33.0,32.5,29.73,SSW,202,1.3,2.3,98,0.00,CLR,OVC,0.17,WeatherDisplay:10.37,2013-03-20 01:20:00,
2013-03-19 21:23:00,33.0,32.2,29.73,SSW,202,1.4,3.5,97,0.00,CLR,OVC,0.17,WeatherDisplay:10.37,2013-03-20 01:23:00,
2013-03-19 21:24:00,33.0,32.5,29.72,SSW,202,0.5,1.2,98,0.00,CLR,OVC,0.17,WeatherDisplay:10.37,2013-03-20 01:24:00,
2013-03-19 21:25:00,33.0,32.2,29.73,SSW,202,0.5,2.3,97,0.00,CLR,OVC,0.17,WeatherDisplay:10.37,2013-03-20 01:25:00,
2013-03-19 21:28:00,32.8,32.0,29.73,SSW,202,0.0,1.2,97,0.00,CLR,OVC,0.17,WeatherDisplay:10.37,2013-03-20 01:28:00,
2013-03-19 21:29:00,32.8,32.0,29.73,SSW,202,0.0,0.0,97,0.00,CLR,OVC,0.17,WeatherDisplay:10.37,2013-03-20 01:29:00,
2013-03-19 21:30:00,32.8,32.0,29.73,SSW,202,0.0,0.0,97,0.00,CLR,OVC,0.17,WeatherDisplay:10.37,2013-03-20 01:30:00,
2013-03-19 21:33:00,32.7,31.9,29.73,SSW,202,0.0,0.0,97,0.00,CLR,OVC,0.17,WeatherDisplay:10.37,2013-03-20 01:33:00,
2013-03-19 21:34:00,32.7,31.9,29.73,SSW,202,0.0,0.0,97,0.00,CLR,OVC,0.17,WeatherDisplay:10.37,2013-03-20 01:34:00,
2013-03-19 21:35:00,32.7,31.9,29.73,SSW,202,0.0,0.0,97,0.00,CLR,OVC,0.17,WeatherDisplay:10.37,2013-03-20 01:35:00,
2013-03-19 21:38:00,32.7,31.9,29.73,SSW,202,0.0,0.0,97,0.00,CLR,OVC,0.17,WeatherDisplay:10.37,2013-03-20 01:38:00,
2013-03-19 21:39:00,32.7,31.9,29.73,SSW,202,0.0,0.0,97,0.00,CLR,OVC,0.17,WeatherDisplay:10.37,2013-03-20 01:39:00,
2013-03-19 21:40:00,32.7,31.9,29.73,SSW,202,0.0,0.0,97,0.00,CLR,OVC,0.17,WeatherDisplay:10.37,2013-03-20 01:40:00,
2013-03-19 21:43:00,32.7,31.9,29.73,SSW,202,0.0,0.0,97,0.00,CLR,OVC,0.17,WeatherDisplay:10.37,2013-03-20 01:43:00,
2013-03-19 21:44:00,32.7,31.9,29.73,SSW,202,0.0,0.0,97,0.00,CLR,OVC,0.17,WeatherDisplay:10.37,2013-03-20 01:44:00,
2013-03-19 21:45:00,32.7,32.2,29.73,SSW,202,0.0,0.0,98,0.00,CLR,OVC,0.17,WeatherDisplay:10.37,2013-03-20 01:45:00,
2013-03-19 21:48:00,32.7,31.9,29.73,SSW,202,0.1,2.0,97,0.00,CLR,OVC,0.17,WeatherDisplay:10.37,2013-03-20 01:48:00,
2013-03-19 21:49:00,32.6,31.8,29.74,SSW,202,0.7,2.3,97,0.00,CLR,OVC,0.17,WeatherDisplay:10.37,2013-03-20 01:49:00,
2013-03-19 21:50:00,32.7,31.9,29.74,SSW,202,1.2,2.3,97,0.00,CLR,OVC,0.17,WeatherDisplay:10.37,2013-03-20 01:50:00,
2013-03-19 21:53:00,32.7,31.9,29.74,SSW,202,2.0,3.5,97,0.00,CLR,OVC,0.17,WeatherDisplay:10.37,2013-03-20 01:53:00,
2013-03-19 21:54:00,32.7,31.9,29.74,SSW,202,2.0,3.5,97,0.00,CLR,OVC,0.17,WeatherDisplay:10.37,2013-03-20 01:54:00,
2013-03-19 21:55:00,32.7,32.2,29.74,SSW,202,1.6,2.3,98,0.00,CLR,OVC,0.17,WeatherDisplay:10.37,2013-03-20 01:55:00,
2013-03-19 21:58:00,32.7,31.9,29.74,SSW,202,3.2,3.5,97,0.00,CLR,OVC,0.17,WeatherDisplay:10.37,2013-03-20 01:58:00,
2013-03-19 21:59:00,32.7,32.2,29.74,SSW,202,2.9,3.5,98,0.00,CLR,OVC,0.17,WeatherDisplay:10.37,2013-03-20 01:59:00,
2013-03-19 22:00:00,32.7,32.2,29.74,SSW,202,2.5,3.5,98,0.00,CLR,OVC,0.17,WeatherDisplay:10.37,2013-03-20 02:00:00,
2013-03-19 22:03:00,32.7,31.9,29.74,SSW,202,2.2,3.5,97,0.00,CLR,OVC,0.17,WeatherDisplay:10.37,2013-03-20 02:03:00,
2013-03-19 22:04:00,32.7,31.9,29.74,SSW,203,1.8,3.5,97,0.00,CLR,OVC,0.17,WeatherDisplay:10.37,2013-03-20 02:04:00,
2013-03-19 22:05:00,32.7,32.2,29.74,SSW,203,0.0,2.3,98,0.00,CLR,OVC,0.17,WeatherDisplay:10.37,2013-03-20 02:05:00,
2013-03-19 22:08:00,32.7,31.9,29.73,SSW,202,0.1,1.0,97,0.00,CLR,OVC,0.17,WeatherDisplay:10.37,2013-03-20 02:08:00,
2013-03-19 22:09:00,32.7,31.9,29.74,SSW,202,0.3,1.2,97,0.00,CLR,OVC,0.17,WeatherDisplay:10.37,2013-03-20 02:09:00,
2013-03-19 22:10:00,32.7,31.9,29.73,SSW,203,2.1,2.3,97,0.00,CLR,OVC,0.17,WeatherDisplay:10.37,2013-03-20 02:10:00,
2013-03-19 22:13:00,32.7,32.2,29.73,SSW,203,3.2,3.5,98,0.00,CLR,OVC,0.17,WeatherDisplay:10.37,2013-03-20 02:13:00,
2013-03-19 22:14:00,32.7,32.2,29.73,SSW,202,3.4,4.0,98,0.00,CLR,OVC,0.17,WeatherDisplay:10.37,2013-03-20 02:14:00,
2013-03-19 22:15:00,32.8,32.3,29.73,SSW,195,3.8,4.6,98,0.00,CLR,OVC,0.17,WeatherDisplay:10.37,2013-03-20 02:15:00,
2013-03-19 22:16:00,32.8,32.3,29.73,South,191,3.8,5.0,98,0.00,CLR,OVC,0.17,WeatherDisplay:10.37,2013-03-20 02:16:00,
2013-03-19 22:19:00,32.8,32.0,29.73,South,171,5.0,6.0,97,0.00,CLR,OVC,0.17,WeatherDisplay:10.37,2013-03-20 02:19:00,
2013-03-19 22:20:00,32.7,31.9,29.73,SE,144,6.6,10.0,97,0.00,CLR,OVC,0.17,WeatherDisplay:10.37,2013-03-20 02:20:00,
2013-03-19 22:21:00,32.7,31.9,29.73,SE,146,6.8,10.4,97,0.00,CLR,OVC,0.17,WeatherDisplay:10.37,2013-03-20 02:21:00,
2013-03-19 22:24:00,32.6,31.8,29.73,SE,130,6.8,9.2,97,0.00,CLR,OVC,0.17,WeatherDisplay:10.37,2013-03-20 02:24:00,
2013-03-19 22:26:00,32.6,31.8,29.72,SE,130,3.8,5.8,97,0.00,CLR,OVC,0.17,WeatherDisplay:10.37,2013-03-20 02:26:00,
2013-03-19 22:29:00,32.5,31.7,29.72,SSE,149,5.8,8.1,97,0.00,CLR,OVC,0.17,WeatherDisplay:10.37,2013-03-20 02:29:00,
2013-03-19 22:31:00,32.4,31.6,29.72,SSE,156,6.1,8.1,97,0.00,CLR,OVC,0.17,WeatherDisplay:10.37,2013-03-20 02:31:00,
2013-03-19 22:32:00,32.4,31.6,29.72,SE,138,7.2,9.2,97,0.00,CLR,OVC,0.17,WeatherDisplay:10.37,2013-03-20 02:32:00,
2013-03-19 22:34:00,32.4,31.6,29.72,SSE,152,6.2,7.0,97,0.00,CLR,OVC,0.17,WeatherDisplay:10.37,2013-03-20 02:34:00,
2013-03-19 22:36:00,32.3,31.5,29.72,ESE,123,7.4,11.5,97,0.00,CLR,OVC,0.17,WeatherDisplay:10.37,2013-03-20 02:36:00,
2013-03-19 22:37:00,32.3,31.5,29.72,ESE,123,8.1,10.4,97,0.00,CLR,OVC,0.17,WeatherDisplay:10.37,2013-03-20 02:37:00,
2013-03-19 22:39:00,32.2,31.4,29.72,ESE,121,10.4,12.0,97,0.00,CLR,OVC,0.17,WeatherDisplay:10.37,2013-03-20 02:39:00,
2013-03-19 22:41:00,32.2,31.4,29.72,SE,130,10.8,13.0,97,0.00,CLR,OVC,0.17,WeatherDisplay:10.37,2013-03-20 02:41:00,
2013-03-19 22:42:00,32.1,31.3,29.72,SSE,148,8.8,13.8,97,0.00,CLR,OVC,0.17,WeatherDisplay:10.37,2013-03-20 02:42:00,
2013-03-19 22:44:00,32.1,31.3,29.72,SE,139,7.7,11.5,97,0.00,CLR,OVC,0.17,WeatherDisplay:10.37,2013-03-20 02:44:00,
2013-03-19 22:46:00,32.1,31.3,29.72,SSE,148,8.8,11.5,97,0.00,CLR,OVC,0.17,WeatherDisplay:10.37,2013-03-20 02:46:00,
2013-03-19 22:47:00,32.0,31.2,29.72,ESE,114,8.1,11.5,97,0.00,CLR,OVC,0.17,WeatherDisplay:10.37,2013-03-20 02:47:00,
2013-03-19 22:49:00,32.0,31.2,29.72,ESE,122,9.6,13.0,97,0.00,CLR,OVC,0.17,WeatherDisplay:10.37,2013-03-20 02:49:00,
2013-03-19 22:51:00,32.0,31.2,29.72,SE,142,8.7,12.7,97,0.00,CLR,OVC,0.17,WeatherDisplay:10.37,2013-03-20 02:51:00,
2013-03-19 22:52:00,32.0,31.2,29.72,ESE,120,7.2,11.5,97,0.00,CLR,OVC,0.17,WeatherDisplay:10.37,2013-03-20 02:52:00,
2013-03-19 22:54:00,32.0,31.2,29.72,SSE,154,7.8,11.5,97,0.00,CLR,OVC,0.17,WeatherDisplay:10.37,2013-03-20 02:54:00,
2013-03-19 22:56:00,32.0,31.2,29.72,SSE,162,7.5,9.2,97,0.00,CLR,OVC,0.17,WeatherDisplay:10.37,2013-03-20 02:56:00,
2013-03-19 22:58:00,32.0,31.2,29.72,SE,129,8.4,11.5,97,0.00,CLR,OVC,0.17,WeatherDisplay:10.37,2013-03-20 02:58:00,
2013-03-19 22:59:00,32.0,31.2,29.72,ESE,109,9.8,12.7,97,0.00,CLR,OVC,0.17,WeatherDisplay:10.37,2013-03-20 02:59:00,
2013-03-19 23:00:00,32.0,31.2,29.72,ESE,110,9.5,12.7,97,0.00,CLR,OVC,0.17,WeatherDisplay:10.37,2013-03-20 03:00:00,
2013-03-19 23:02:00,32.0,31.2,29.72,SE,140,4.2,9.2,97,0.00,CLR,OVC,0.17,WeatherDisplay:10.37,2013-03-20 03:02:00,
2013-03-19 23:03:00,32.0,31.2,29.72,SE,140,4.2,8.1,97,0.00,CLR,OVC,0.17,WeatherDisplay:10.37,2013-03-20 03:03:00,
2013-03-19 23:04:00,32.0,31.2,29.72,SE,124,5.2,8.1,97,0.00,CLR,OVC,0.17,WeatherDisplay:10.37,2013-03-20 03:04:00,
2013-03-19 23:05:00,32.0,31.2,29.72,ESE,122,5.4,7.0,97,0.00,CLR,OVC,0.17,WeatherDisplay:10.37,2013-03-20 03:05:00,
2013-03-19 23:07:00,32.0,31.0,29.72,SE,134,5.2,7.0,96,0.00,CLR,OVC,0.17,WeatherDisplay:10.37,2013-03-20 03:07:00,
2013-03-19 23:08:00,32.1,31.3,29.72,SE,134,5.2,6.9,97,0.00,CLR,OVC,0.17,WeatherDisplay:10.37,2013-03-20 03:08:00,
2013-03-19 23:09:00,32.1,31.3,29.72,SE,142,4.2,6.9,97,0.00,CLR,OVC,0.17,WeatherDisplay:10.37,2013-03-20 03:09:00,
2013-03-19 23:10:00,32.1,31.3,29.71,SE,142,4.1,5.8,97,0.00,CLR,OVC,0.17,WeatherDisplay:10.37,2013-03-20 03:10:00,
2013-03-19 23:12:00,32.1,31.1,29.71,South,183,2.5,8.1,96,0.00,CLR,OVC,0.17,WeatherDisplay:10.37,2013-03-20 03:12:00,
2013-03-19 23:13:00,32.0,31.2,29.71,South,183,3.0,3.5,97,0.00,CLR,OVC,0.17,WeatherDisplay:10.37,2013-03-20 03:13:00,
2013-03-19 23:15:00,32.1,31.3,29.71,South,183,2.9,4.6,97,0.00,CLR,OVC,0.17,WeatherDisplay:10.37,2013-03-20 03:15:00,
2013-03-19 23:17:00,32.0,31.0,29.71,South,181,2.6,4.6,96,0.00,CLR,OVC,0.17,WeatherDisplay:10.37,2013-03-20 03:17:00,
2013-03-19 23:18:00,32.1,31.1,29.71,South,181,1.6,3.5,96,0.00,CLR,OVC,0.17,WeatherDisplay:10.37,2013-03-20 03:18:00,
2013-03-19 23:20:00,32.0,31.2,29.71,South,181,1.6,3.5,97,0.00,CLR,OVC,0.17,WeatherDisplay:10.37,2013-03-20 03:20:00,
2013-03-19 23:23:00,32.0,31.0,29.71,South,181,2.8,3.5,96,0.00,CLR,OVC,0.17,WeatherDisplay:10.37,2013-03-20 03:23:00,
2013-03-19 23:25:00,32.0,31.0,29.71,South,181,1.9,3.5,96,0.00,CLR,OVC,0.17,WeatherDisplay:10.37,2013-03-20 03:25:00,
2013-03-19 23:28:00,31.9,30.9,29.71,South,181,1.8,3.5,96,0.00,CLR,OVC,0.17,WeatherDisplay:10.37,2013-03-20 03:28:00,
2013-03-19 23:30:00,31.9,30.9,29.71,South,181,1.9,3.5,96,0.00,CLR,OVC,0.17,WeatherDisplay:10.37,2013-03-20 03:30:00,
2013-03-19 23:34:00,31.9,30.9,29.71,South,181,1.3,2.3,96,0.00,CLR,OVC,0.17,WeatherDisplay:10.37,2013-03-20 03:34:00,
2013-03-19 23:35:00,31.9,30.9,29.71,South,181,1.3,2.3,96,0.00,CLR,OVC,0.17,WeatherDisplay:10.37,2013-03-20 03:35:00,
2013-03-19 23:39:00,31.9,30.9,29.71,South,181,2.4,5.8,96,0.00,CLR,OVC,0.17,WeatherDisplay:10.37,2013-03-20 03:39:00,
2013-03-19 23:40:00,31.9,30.9,29.71,South,181,1.9,3.5,96,0.00,CLR,OVC,0.17,WeatherDisplay:10.37,2013-03-20 03:40:00,
2013-03-19 23:44:00,31.9,30.9,29.70,SSE,155,4.5,4.5,96,0.00,CLR,OVC,0.17,WeatherDisplay:10.37,2013-03-20 03:44:00,
2013-03-19 23:45:00,31.9,30.9,29.70,SSE,154,4.7,5.8,96,0.00,CLR,OVC,0.17,WeatherDisplay:10.37,2013-03-20 03:45:00,
2013-03-19 23:46:00,31.8,30.8,29.70,SSE,154,3.8,4.6,96,0.00,CLR,OVC,0.17,WeatherDisplay:10.37,2013-03-20 03:46:00,
2013-03-19 23:50:00,31.8,30.8,29.70,SE,140,3.5,5.8,96,0.00,CLR,OVC,0.17,WeatherDisplay:10.37,2013-03-20 03:50:00,
2013-03-19 23:51:00,31.9,30.9,29.70,SE,140,4.6,5.8,96,0.00,CLR,OVC,0.17,WeatherDisplay:10.37,2013-03-20 03:51:00,
2013-03-19 23:55:00,31.8,30.8,29.70,SE,129,5.0,7.0,96,0.00,CLR,OVC,0.17,WeatherDisplay:10.37,2013-03-20 03:55:00,
2013-03-19 23:57:00,31.8,30.8,29.70,ESE,116,6.4,9.2,96,0.00,CLR,OVC,0.17,WeatherDisplay:10.37,2013-03-20 03:57:00,